EA1FJG Weather Reports


Display with metric or nautical units.
time (UTC)temp
F
wind
direction
speed
MPH
gust
MPH
rain 1hr
in
rain 24hr
in
rain mn
in
humidity
%
barometer
mb
20260831154803 71 346 4.0 9.0 0.00 0.00 0.00 72 1022.9
20260831154703 71 340 4.0 9.0 0.00 0.00 0.00 71 1022.9
20260831154603 72 341 4.0 9.0 0.00 0.00 0.00 70 1022.8
20260831154503 72 341 4.0 9.0 0.00 0.00 0.00 70 1022.9
20260831154424 72 347 4.0 8.0 0.00 0.00 0.00 70 1022.8
20260831154303 72 346 4.0 8.0 0.00 0.00 0.00 71 1022.8
20260831154224 72 350 4.0 8.0 0.00 0.00 0.00 73 1022.8
20260831154103 71 344 4.0 9.0 0.00 0.00 0.00 72 1022.8
20260831154003 71 343 4.0 9.0 0.00 0.00 0.00 73 1022.9
20260831153924 72 349 4.0 9.0 0.00 0.00 0.00 72 1022.9
20260831153803 72 346 4.0 9.0 0.00 0.00 0.00 72 1022.9
20260831153724 72 338 4.0 9.0 0.00 0.00 0.00 73 1022.8
20260831153624 71 342 4.0 9.0 0.00 0.00 0.00 75 1022.8
20260831153503 71 342 4.0 9.0 0.00 0.00 0.00 74 1022.8
20260831153403 71 341 4.0 9.0 0.00 0.00 0.00 73 1022.8
20260831153303 72 337 4.0 9.0 0.00 0.00 0.00 72 1022.8
20260831153203 72 338 3.0 9.0 0.00 0.00 0.00 71 1022.9
20260831153103 72 355 4.0 13.0 0.00 0.00 0.00 71 1022.9
20260831153003 72 358 4.0 13.0 0.00 0.00 0.00 73 1022.8
20260831152903 72 359 4.0 13.0 0.00 0.00 0.00 73 1022.7
20260831152824 72 358 4.0 13.0 0.00 0.00 0.00 74 1022.8
20260831152724 72 3 4.0 13.0 0.00 0.00 0.00 73 1022.8
20260831152603 72 3 3.0 13.0 0.00 0.00 0.00 73 1022.8
20260831152503 71 3 4.0 13.0 0.00 0.00 0.00 74 1022.7
20260831152424 71 6 4.0 13.0 0.00 0.00 0.00 75 1022.9
20260831152324 71 7 4.0 13.0 0.00 0.00 0.00 75 1022.9
20260831152203 71 8 4.0 13.0 0.00 0.00 0.00 72 1022.8
20260831152103 71 6 4.0 9.0 0.00 0.00 0.00 74 1022.8
20260831152003 71 4 4.0 8.0 0.00 0.00 0.00 75 1022.8
20260831151903 71 1 4.0 8.0 0.00 0.00 0.00 75 1022.8
20260831151803 71 2 4.0 8.0 0.00 0.00 0.00 75 1022.9
20260831151703 71 1 4.0 8.0 0.00 0.00 0.00 74 1022.9
20260831151603 71 4 4.0 8.0 0.00 0.00 0.00 75 1022.9
20260831151524 71 6 4.0 8.0 0.00 0.00 0.00 74 1022.9
20260831151403 71 3 4.0 10.0 0.00 0.00 0.00 75 1023.1
20260831151324 71 3 5.0 11.0 0.00 0.00 0.00 74 1023.0
20260831151203 71 2 5.0 11.0 0.00 0.00 0.00 74 1022.8
20260831151103 71 3 5.0 11.0 0.00 0.00 0.00 75 1022.8
20260831151003 71 4 5.0 11.0 0.00 0.00 0.00 76 1022.9
20260831150903 71 7 4.0 11.0 0.00 0.00 0.00 77 1023.2
20260831150803 71 5 4.0 11.0 0.00 0.00 0.00 76 1023.0
20260831150724 71 6 4.0 11.0 0.00 0.00 0.00 77 1023.0
20260831150603 71 4 4.0 11.0 0.00 0.00 0.00 77 1023.0
20260831150524 71 3 4.0 11.0 0.00 0.00 0.00 76 1023.1
20260831150403 71 6 4.0 11.0 0.00 0.00 0.00 75 1023.0
20260831150303 72 7 4.0 11.0 0.00 0.00 0.00 75 1023.0
20260831150203 72 5 3.0 8.0 0.00 0.00 0.00 75 1022.9
20260831150003 72 11 3.0 7.0 0.00 0.00 0.00 75 1023.0
20260831145903 72 8 3.0 7.0 0.00 0.00 0.00 75 1023.0
20260831145824 72 8 4.0 7.0 0.00 0.00 0.00 74 1023.1
20260831145703 72 8 4.0 7.0 0.00 0.00 0.00 75 1023.2
20260831145603 72 4 4.0 7.0 0.00 0.00 0.00 75 1023.2
20260831145503 72 5 3.0 7.0 0.00 0.00 0.00 74 1023.2
20260831145403 72 7 3.0 7.0 0.00 0.00 0.00 74 1023.3
20260831145306 72 3 3.0 7.0 0.00 0.00 0.00 75 1023.1
20260831145203 72 3 3.0 7.0 0.00 0.00 0.00 74 1023.0
20260831145124 72 6 3.0 7.0 0.00 0.00 0.00 73 1023.0
20260831145003 72 5 3.0 7.0 0.00 0.00 0.00 72 1023.1
20260831144903 72 357 2.0 7.0 0.00 0.00 0.00 71 1023.1
20260831144803 73 359 2.0 7.0 0.00 0.00 0.00 70 1022.9
20260831144703 73 358 2.0 7.0 0.00 0.00 0.00 70 1022.9
20260831144603 73 358 2.0 7.0 0.00 0.00 0.00 70 1023.0
20260831144503 73 4 2.0 7.0 0.00 0.00 0.00 70 1023.0
20260831144403 73 355 2.0 7.0 0.00 0.00 0.00 70 1023.3
20260831144303 73 351 2.0 7.0 0.00 0.00 0.00 69 1023.3
20260831144203 73 347 2.0 7.0 0.00 0.00 0.00 71 1023.2
20260831144103 73 346 3.0 7.0 0.00 0.00 0.00 70 1023.2
20260831144024 73 346 3.0 7.0 0.00 0.00 0.00 70 1023.0
20260831143903 73 344 3.0 7.0 0.00 0.00 0.00 70 1023.0
20260831143803 73 341 3.0 7.0 0.00 0.00 0.00 69 1023.2
20260831143703 73 343 3.0 7.0 0.00 0.00 0.00 66 1023.1
20260831143603 73 343 3.0 7.0 0.00 0.00 0.00 69 1023.2
20260831143503 73 345 3.0 7.0 0.00 0.00 0.00 70 1023.2
20260831143403 72 347 3.0 7.0 0.00 0.00 0.00 71 1023.3
20260831143303 72 348 3.0 7.0 0.00 0.00 0.00 70 1023.2
20260831143203 72 349 4.0 8.0 0.00 0.00 0.00 70 1023.3
20260831143103 72 348 4.0 8.0 0.00 0.00 0.00 69 1023.3
20260831143003 72 350 4.0 8.0 0.00 0.00 0.00 68 1023.2
20260831142903 72 351 4.0 8.0 0.00 0.00 0.00 68 1023.3
20260831142803 72 357 4.0 8.0 0.00 0.00 0.00 66 1023.3
20260831142703 72 354 3.0 8.0 0.00 0.00 0.00 68 1023.3
20260831142603 72 354 3.0 8.0 0.00 0.00 0.00 68 1023.1
20260831142503 72 355 4.0 8.0 0.00 0.00 0.00 68 1023.3
20260831142423 72 2 4.0 10.0 0.00 0.00 0.00 68 1023.3
20260831142323 72 3 4.0 10.0 0.00 0.00 0.00 67 1023.3
20260831142203 73 3 4.0 10.0 0.00 0.00 0.00 67 1023.5
20260831142103 72 2 5.0 10.0 0.00 0.00 0.00 67 1023.2
20260831142002 72 360 5.0 10.0 0.00 0.00 0.00 68 1023.5
20260831141902 72 1 5.0 10.0 0.00 0.00 0.00 67 1023.7
20260831141802 72 1 5.0 10.0 0.00 0.00 0.00 67 1023.7
20260831141702 72 1 4.0 10.0 0.00 0.00 0.00 67 1023.3
20260831141602 72 4 4.0 10.0 0.00 0.00 0.00 68 1023.5
20260831141503 72 1 4.0 10.0 0.00 0.00 0.00 67 1023.3
20260831141403 72 359 4.0 10.0 0.00 0.00 0.00 67 1023.6
20260831141324 72 349 4.0 10.0 0.00 0.00 0.00 67 1023.5
20260831141224 73 347 4.0 10.0 0.00 0.00 0.00 65 1023.5
20260831141102 73 345 4.0 10.0 0.00 0.00 0.00 64 1023.5
20260831141003 73 347 4.0 10.0 0.00 0.00 0.00 65 1023.6
20260831140902 73 347 4.0 10.0 0.00 0.00 0.00 66 1023.5
20260831140802 73 347 4.0 10.0 0.00 0.00 0.00 67 1023.7
20260831140703 72 347 4.0 10.0 0.00 0.00 0.00 67 1023.7
20260831140602 72 348 5.0 10.0 0.00 0.00 0.00 67 1023.3
20260831140523 72 353 5.0 10.0 0.00 0.00 0.00 66 1023.5
20260831140403 72 353 5.0 10.0 0.00 0.00 0.00 65 1023.7
20260831140303 72 359 5.0 10.0 0.00 0.00 0.00 65 1023.6
20260831140202 72 358 4.0 10.0 0.00 0.00 0.00 65 1023.3
20260831140124 73 360 4.0 10.0 0.00 0.00 0.00 63 1023.6
20260831140003 73 3 4.0 8.0 0.00 0.00 0.00 64 1023.5
20260831135902 73 360 4.0 8.0 0.00 0.00 0.00 64 1023.7
20260831135802 73 1 4.0 8.0 0.00 0.00 0.00 65 1023.5
20260831135702 73 360 4.0 9.0 0.00 0.00 0.00 64 1023.5
20260831135603 73 360 4.0 9.0 0.00 0.00 0.00 64 1023.5
20260831135502 73 1 4.0 9.0 0.00 0.00 0.00 64 1023.6
20260831135403 73 359 4.0 9.0 0.00 0.00 0.00 65 1023.5
20260831135306 73 359 4.0 9.0 0.00 0.00 0.00 64 1023.6
20260831135203 73 355 4.0 9.0 0.00 0.00 0.00 66 1023.5
20260831135102 73 354 5.0 9.0 0.00 0.00 0.00 66 1023.6
20260831135002 72 356 5.0 9.0 0.00 0.00 0.00 67 1023.6
20260831134924 72 356 5.0 9.0 0.00 0.00 0.00 66 1023.3
20260831134803 72 357 4.0 9.0 0.00 0.00 0.00 65 1023.5
20260831134702 72 356 4.0 9.0 0.00 0.00 0.00 67 1023.5
20260831134602 72 355 4.0 8.0 0.00 0.00 0.00 67 1023.6
20260831134524 72 349 4.0 8.0 0.00 0.00 0.00 68 1023.5
20260831134402 72 348 4.0 8.0 0.00 0.00 0.00 67 1023.6
20260831134323 73 347 5.0 8.0 0.00 0.00 0.00 65 1023.5
20260831134203 73 351 4.0 8.0 0.00 0.00 0.00 66 1023.5
20260831134102 73 355 5.0 8.0 0.00 0.00 0.00 66 1023.3
20260831134003 73 352 5.0 8.0 0.00 0.00 0.00 66 1023.7
20260831133902 73 349 5.0 8.0 0.00 0.00 0.00 67 1023.6
20260831133803 73 349 5.0 8.0 0.00 0.00 0.00 65 1023.5
20260831133703 73 350 5.0 8.0 0.00 0.00 0.00 66 1023.5
20260831133603 73 347 5.0 8.0 0.00 0.00 0.00 67 1023.5
20260831133503 72 351 5.0 8.0 0.00 0.00 0.00 66 1023.5
20260831133403 72 351 5.0 8.0 0.00 0.00 0.00 66 1023.5
20260831133303 72 349 5.0 8.0 0.00 0.00 0.00 66 1023.5
20260831133203 72 349 5.0 8.0 0.00 0.00 0.00 66 1023.5
20260831133102 72 346 5.0 8.0 0.00 0.00 0.00 66 1023.6
20260831133002 72 345 5.0 8.0 0.00 0.00 0.00 66 1023.3
20260831132903 72 345 5.0 9.0 0.00 0.00 0.00 66 1023.7
20260831132803 72 344 5.0 10.0 0.00 0.00 0.00 66 1023.5
20260831132702 72 345 6.0 10.0 0.00 0.00 0.00 67 1023.5
20260831132603 72 346 6.0 10.0 0.00 0.00 0.00 66 1023.5
20260831132503 72 348 5.0 10.0 0.00 0.00 0.00 65 1023.6
20260831132402 72 349 5.0 10.0 0.00 0.00 0.00 67 1023.3
20260831132306 72 351 6.0 10.0 0.00 0.00 0.00 67 1023.3
20260831132224 72 351 5.0 10.0 0.00 0.00 0.00 66 1023.5
20260831132102 72 352 5.0 10.0 0.00 0.00 0.00 68 1023.3
20260831132002 72 353 5.0 10.0 0.00 0.00 0.00 66 1023.5
20260831131903 72 354 5.0 10.0 0.00 0.00 0.00 66 1023.5
20260831131824 72 360 4.0 9.0 0.00 0.00 0.00 67 1023.5
20260831131703 72 1 4.0 9.0 0.00 0.00 0.00 66 1023.6
20260831131603 73 358 4.0 9.0 0.00 0.00 0.00 65 1023.5
20260831131502 73 359 4.0 9.0 0.00 0.00 0.00 66 1023.5
20260831131403 73 351 3.0 9.0 0.00 0.00 0.00 66 1023.5
20260831131302 73 350 3.0 9.0 0.00 0.00 0.00 66 1023.8
20260831131202 73 351 3.0 8.0 0.00 0.00 0.00 66 1023.6
20260831131123 73 351 3.0 8.0 0.00 0.00 0.00 66 1023.6
20260831131003 73 346 3.0 8.0 0.00 0.00 0.00 66 1023.6
20260831130924 73 346 4.0 9.0 0.00 0.00 0.00 66 1023.6
20260831130803 73 344 4.0 9.0 0.00 0.00 0.00 65 1023.6
20260831130702 73 342 3.0 9.0 0.00 0.00 0.00 66 1023.6
20260831130603 73 344 3.0 9.0 0.00 0.00 0.00 65 1023.3
20260831130503 73 343 3.0 9.0 0.00 0.00 0.00 64 1023.5
20260831130403 73 350 3.0 9.0 0.00 0.00 0.00 64 1023.7
20260831130302 73 348 3.0 9.0 0.00 0.00 0.00 65 1023.7
20260831130223 73 346 3.0 9.0 0.00 0.00 0.00 64 1023.6
20260831130003 73 349 3.0 9.0 0.00 0.00 0.00 66 1023.6
20260831125903 73 349 4.0 9.0 0.00 0.00 0.00 64 1023.6
20260831125802 73 348 3.0 7.0 0.00 0.00 0.00 64 1023.5
20260831125703 73 347 3.0 7.0 0.00 0.00 0.00 67 1023.6
20260831125603 73 347 3.0 7.0 0.00 0.00 0.00 65 1023.7
20260831125503 73 344 4.0 7.0 0.00 0.00 0.00 64 1023.7
20260831125403 73 341 4.0 8.0 0.00 0.00 0.00 64 1023.6
20260831125306 73 346 4.0 8.0 0.00 0.00 0.00 63 1023.7
20260831125203 73 345 4.0 8.0 0.00 0.00 0.00 65 1023.6
20260831125103 73 344 4.0 8.0 0.00 0.00 0.00 63 1023.6
20260831125003 73 344 4.0 8.0 0.00 0.00 0.00 64 1023.8
20260831124902 73 343 4.0 8.0 0.00 0.00 0.00 63 1023.8
20260831124802 73 344 4.0 8.0 0.00 0.00 0.00 64 1023.8
20260831124702 74 347 4.0 8.0 0.00 0.00 0.00 64 1023.8
20260831124603 74 346 5.0 8.0 0.00 0.00 0.00 63 1023.8
20260831124503 74 346 4.0 8.0 0.00 0.00 0.00 63 1023.7
20260831124403 74 348 4.0 7.0 0.00 0.00 0.00 63 1023.9
20260831124303 74 346 4.0 7.0 0.00 0.00 0.00 64 1023.7
20260831124203 74 345 4.0 7.0 0.00 0.00 0.00 64 1023.6
20260831124103 74 347 3.0 7.0 0.00 0.00 0.00 63 1023.6
20260831124003 74 340 3.0 7.0 0.00 0.00 0.00 64 1023.7
20260831123902 73 338 3.0 7.0 0.00 0.00 0.00 66 1023.5
20260831123803 73 338 3.0 7.0 0.00 0.00 0.00 66 1023.5
20260831123724 73 338 3.0 7.0 0.00 0.00 0.00 65 1023.7
20260831123602 74 338 3.0 7.0 0.00 0.00 0.00 64 1023.8
20260831123503 74 338 3.0 6.0 0.00 0.00 0.00 63 1023.5
20260831123402 73 340 3.0 6.0 0.00 0.00 0.00 65 1023.7
20260831123303 73 339 3.0 6.0 0.00 0.00 0.00 66 1023.7
20260831123203 72 337 3.0 7.0 0.00 0.00 0.00 66 1023.7
20260831123102 72 341 3.0 7.0 0.00 0.00 0.00 66 1023.7
20260831123003 72 339 3.0 7.0 0.00 0.00 0.00 66 1023.9
20260831122903 72 346 3.0 7.0 0.00 0.00 0.00 65 1023.7
20260831122803 72 351 3.0 7.0 0.00 0.00 0.00 67 1023.6
20260831122702 72 351 3.0 7.0 0.00 0.00 0.00 66 1023.6
20260831122603 72 350 3.0 7.0 0.00 0.00 0.00 68 1023.7
20260831122503 72 351 3.0 7.0 0.00 0.00 0.00 67 1023.8
20260831122403 72 352 3.0 7.0 0.00 0.00 0.00 66 1023.8
20260831122305 72 352 3.0 7.0 0.00 0.00 0.00 66 1023.8
20260831122202 72 355 3.0 6.0 0.00 0.00 0.00 66 1023.9
20260831122103 72 357 3.0 6.0 0.00 0.00 0.00 67 1023.8
20260831122003 72 355 3.0 8.0 0.00 0.00 0.00 67 1023.8
20260831121924 72 355 3.0 8.0 0.00 0.00 0.00 66 1023.8
20260831121803 72 354 3.0 8.0 0.00 0.00 0.00 66 1023.9
20260831121703 73 353 3.0 8.0 0.00 0.00 0.00 64 1024.0
20260831121602 74 352 3.0 8.0 0.00 0.00 0.00 63 1023.8
20260831121503 74 352 3.0 8.0 0.00 0.00 0.00 63 1023.9
20260831121403 74 350 2.0 8.0 0.00 0.00 0.00 65 1023.7
20260831121303 74 350 3.0 8.0 0.00 0.00 0.00 64 1023.9
20260831121203 75 350 2.0 8.0 0.00 0.00 0.00 64 1023.9
20260831121103 75 350 2.0 8.0 0.00 0.00 0.00 62 1024.0
20260831121003 76 355 2.0 6.0 0.00 0.00 0.00 62 1023.8
20260831120903 76 351 2.0 6.0 0.00 0.00 0.00 62 1023.8
20260831120803 75 348 2.0 6.0 0.00 0.00 0.00 64 1024.0
20260831120703 75 347 2.0 6.0 0.00 0.00 0.00 62 1024.0
20260831120603 75 347 2.0 6.0 0.00 0.00 0.00 62 1024.0
20260831120503 75 339 2.0 6.0 0.00 0.00 0.00 64 1023.8
20260831120403 75 339 2.0 6.0 0.00 0.00 0.00 64 1023.8
20260831120302 74 342 2.0 6.0 0.00 0.00 0.00 60 1023.8
20260831120203 74 338 2.0 6.0 0.00 0.00 0.00 63 1024.0
20260831120024 73 338 2.0 6.0 0.00 0.00 0.00 62 1023.8
20260831115903 73 338 2.0 6.0 0.00 0.00 0.00 62 1023.9
20260831115803 74 336 2.0 6.0 0.00 0.00 0.00 63 1024.0
20260831115703 74 340 2.0 6.0 0.00 0.00 0.00 61 1023.8
20260831115624 75 345 2.0 6.0 0.00 0.00 0.00 62 1024.0
20260831115503 75 350 2.0 6.0 0.00 0.00 0.00 62 1024.0
20260831115403 75 357 2.0 6.0 0.00 0.00 0.00 62 1023.8
20260831115305 75 356 2.0 6.0 0.00 0.00 0.00 60 1024.1
20260831115224 75 357 2.0 6.0 0.00 0.00 0.00 61 1023.9
20260831115103 75 359 2.0 6.0 0.00 0.00 0.00 62 1023.9
20260831115003 74 359 2.0 6.0 0.00 0.00 0.00 62 1023.8
20260831114903 74 2 2.0 6.0 0.00 0.00 0.00 65 1024.0
20260831114803 73 6 2.0 6.0 0.00 0.00 0.00 64 1024.0
20260831114724 73 360 2.0 6.0 0.00 0.00 0.00 63 1024.0
20260831114603 73 359 2.0 6.0 0.00 0.00 0.00 63 1023.8
20260831114503 74 358 2.0 6.0 0.00 0.00 0.00 64 1024.0
20260831114403 74 354 2.0 4.0 0.00 0.00 0.00 64 1024.0
20260831114303 75 354 2.0 4.0 0.00 0.00 0.00 63 1024.0
20260831114203 74 353 2.0 4.0 0.00 0.00 0.00 65 1024.1
20260831114103 74 353 2.0 4.0 0.00 0.00 0.00 67 1023.8
20260831114003 74 355 2.0 4.0 0.00 0.00 0.00 66 1024.2
20260831113903 73 356 2.0 4.0 0.00 0.00 0.00 66 1024.2
20260831113803 74 355 2.0 4.0 0.00 0.00 0.00 66 1024.2
20260831113703 73 356 2.0 4.0 0.00 0.00 0.00 65 1024.2
20260831113603 73 360 2.0 4.0 0.00 0.00 0.00 64 1024.2
20260831113503 72 359 2.0 4.0 0.00 0.00 0.00 66 1024.2
20260831113403 72 360 2.0 4.0 0.00 0.00 0.00 69 1024.2
20260831113303 71 360 2.0 4.0 0.00 0.00 0.00 66 1024.1
20260831113203 71 360 2.0 4.0 0.00 0.00 0.00 68 1024.2
20260831113103 71 2 1.0 4.0 0.00 0.00 0.00 68 1024.2
20260831113003 71 3 1.0 3.0 0.00 0.00 0.00 69 1024.2
20260831112903 71 2 1.0 3.0 0.00 0.00 0.00 70 1024.2
20260831112803 71 12 1.0 3.0 0.00 0.00 0.00 70 1024.2
20260831112703 71 14 1.0 3.0 0.00 0.00 0.00 69 1024.2
20260831112624 71 14 1.0 3.0 0.00 0.00 0.00 67 1024.1
20260831112503 71 16 1.0 3.0 0.00 0.00 0.00 65 1024.2
20260831112403 71 17 1.0 2.0 0.00 0.00 0.00 65 1024.0
20260831112306 71 1 1.0 3.0 0.00 0.00 0.00 64 1024.0
20260831112203 71 2 1.0 3.0 0.00 0.00 0.00 67 1024.1
20260831112103 71 357 1.0 3.0 0.00 0.00 0.00 66 1024.1
20260831112003 71 354 2.0 3.0 0.00 0.00 0.00 66 1024.3
20260831111903 71 355 2.0 3.0 0.00 0.00 0.00 65 1024.3
20260831111803 71 350 2.0 3.0 0.00 0.00 0.00 64 1024.2
20260831111724 71 349 2.0 3.0 0.00 0.00 0.00 66 1024.1
20260831111603 71 350 2.0 3.0 0.00 0.00 0.00 65 1024.2
20260831111503 72 351 2.0 3.0 0.00 0.00 0.00 65 1024.2
20260831111403 72 350 2.0 3.0 0.00 0.00 0.00 67 1024.1
20260831111324 71 349 2.0 3.0 0.00 0.00 0.00 66 1024.1
20260831111203 71 357 2.0 3.0 0.00 0.00 0.00 66 1024.2
20260831111103 72 359 2.0 3.0 0.00 0.00 0.00 65 1024.2
20260831111003 72 360 2.0 3.0 0.00 0.00 0.00 64 1024.3
20260831110903 72 4 2.0 3.0 0.00 0.00 0.00 66 1024.2
20260831110824 72 353 2.0 3.0 0.00 0.00 0.00 66 1024.1
20260831110703 73 351 1.0 3.0 0.00 0.00 0.00 64 1024.1
20260831110603 73 348 1.0 3.0 0.00 0.00 0.00 66 1024.1
20260831110503 74 348 1.0 3.0 0.00 0.00 0.00 65 1024.3
20260831110403 74 332 1.0 3.0 0.00 0.00 0.00 64 1024.0
20260831110303 74 334 1.0 3.0 0.00 0.00 0.00 61 1024.0
20260831110203 74 332 1.0 3.0 0.00 0.00 0.00 60 1024.1
20260831110003 73 334 1.0 3.0 0.00 0.00 0.00 62 1024.2
20260831105903 73 333 1.0 3.0 0.00 0.00 0.00 61 1024.2
20260831105824 73 332 1.0 3.0 0.00 0.00 0.00 61 1024.2
20260831105703 73 327 1.0 3.0 0.00 0.00 0.00 61 1024.3
20260831105603 73 324 1.0 3.0 0.00 0.00 0.00 61 1024.2
20260831105503 73 311 2.0 3.0 0.00 0.00 0.00 63 1024.2
20260831105403 73 311 2.0 3.0 0.00 0.00 0.00 62 1024.2
20260831105306 73 317 2.0 3.0 0.00 0.00 0.00 62 1024.1
20260831105203 73 312 2.0 3.0 0.00 0.00 0.00 63 1024.2
20260831105103 73 314 2.0 3.0 0.00 0.00 0.00 61 1024.2
20260831105003 73 312 2.0 3.0 0.00 0.00 0.00 61 1024.4
20260831104903 73 314 2.0 3.0 0.00 0.00 0.00 63 1024.4
20260831104803 73 313 2.0 3.0 0.00 0.00 0.00 62 1024.3
20260831104703 73 315 2.0 3.0 0.00 0.00 0.00 63 1024.3
20260831104624 73 312 2.0 3.0 0.00 0.00 0.00 63 1024.1
20260831104503 73 314 1.0 3.0 0.00 0.00 0.00 64 1024.1
20260831104403 73 331 1.0 3.0 0.00 0.00 0.00 64 1024.2
20260831104324 73 334 1.0 3.0 0.00 0.00 0.00 68 1024.2
20260831104203 72 345 1.0 2.0 0.00 0.00 0.00 66 1024.1
20260831104124 72 348 1.0 2.0 0.00 0.00 0.00 65 1024.1
20260831104003 72 347 1.0 2.0 0.00 0.00 0.00 66 1024.1
20260831103903 72 358 1.0 2.0 0.00 0.00 0.00 66 1024.1
20260831103803 72 358 1.0 2.0 0.00 0.00 0.00 66 1024.2
20260831103703 72 22 1.0 2.0 0.00 0.00 0.00 68 1024.2
20260831103603 72 27 1.0 3.0 0.00 0.00 0.00 65 1024.3
20260831103503 72 50 1.0 4.0 0.00 0.00 0.00 66 1024.3
20260831103403 72 55 1.0 4.0 0.00 0.00 0.00 67 1024.4
20260831103303 71 60 1.0 4.0 0.00 0.00 0.00 67 1024.3
20260831103203 71 69 2.0 4.0 0.00 0.00 0.00 68 1024.1
20260831103103 71 77 2.0 4.0 0.00 0.00 0.00 66 1024.1
20260831103003 70 77 2.0 4.0 0.00 0.00 0.00 68 1024.1
20260831102924 70 80 2.0 4.0 0.00 0.00 0.00 67 1024.3
20260831102803 70 76 2.0 4.0 0.00 0.00 0.00 68 1024.3
20260831102703 70 80 3.0 6.0 0.00 0.00 0.00 68 1024.3
20260831102603 70 84 3.0 6.0 0.00 0.00 0.00 68 1024.2
20260831102503 71 88 3.0 6.0 0.00 0.00 0.00 67 1024.4
20260831102424 71 89 3.0 6.0 0.00 0.00 0.00 67 1024.3
20260831102305 71 90 3.0 6.0 0.00 0.00 0.00 66 1024.3
20260831102203 72 94 3.0 6.0 0.00 0.00 0.00 65 1024.3
20260831102103 72 91 3.0 6.0 0.00 0.00 0.00 66 1024.2
20260831102003 72 86 3.0 6.0 0.00 0.00 0.00 66 1024.2
20260831101903 72 89 3.0 6.0 0.00 0.00 0.00 67 1024.2
20260831101803 72 92 3.0 6.0 0.00 0.00 0.00 68 1024.2
20260831101724 72 101 3.0 6.0 0.00 0.00 0.00 67 1024.3
20260831101603 72 103 3.0 6.0 0.00 0.00 0.00 68 1024.2
20260831101503 72 107 3.0 6.0 0.00 0.00 0.00 66 1024.2
20260831101403 71 107 3.0 6.0 0.00 0.00 0.00 68 1024.1
20260831101324 71 109 3.0 6.0 0.00 0.00 0.00 68 1024.2
20260831101203 70 114 3.0 6.0 0.00 0.00 0.00 68 1024.3
20260831101103 70 113 4.0 6.0 0.00 0.00 0.00 68 1024.3
20260831101024 70 116 4.0 6.0 0.00 0.00 0.00 69 1024.3
20260831100903 71 116 4.0 6.0 0.00 0.00 0.00 69 1024.3
20260831100803 71 118 4.0 6.0 0.00 0.00 0.00 68 1024.1
20260831100724 71 118 4.0 6.0 0.00 0.00 0.00 71 1024.1
20260831100603 70 120 4.0 6.0 0.00 0.00 0.00 71 1024.1
20260831100503 70 121 4.0 6.0 0.00 0.00 0.00 71 1024.3
20260831100424 70 117 4.0 6.0 0.00 0.00 0.00 72 1024.1
20260831100303 70 114 4.0 6.0 0.00 0.00 0.00 72 1024.1
20260831100203 71 111 3.0 6.0 0.00 0.00 0.00 70 1024.2
20260831100103 72 110 3.0 6.0 0.00 0.00 0.00 70 1024.2
20260831100003 72 109 3.0 6.0 0.00 0.00 0.00 68 1024.2
20260831095903 72 109 2.0 4.0 0.00 0.00 0.00 69 1024.2
20260831095803 72 104 2.0 4.0 0.00 0.00 0.00 69 1024.4
20260831095724 73 94 2.0 4.0 0.00 0.00 0.00 69 1024.1
20260831095603 73 91 2.0 4.0 0.00 0.00 0.00 68 1024.3
20260831095503 72 73 2.0 6.0 0.00 0.00 0.00 71 1024.3
20260831095403 72 88 2.0 6.0 0.00 0.00 0.00 71 1024.2
20260831095324 72 90 2.0 6.0 0.00 0.00 0.00 70 1024.1
20260831095203 72 90 2.0 6.0 0.00 0.00 0.00 70 1024.3
20260831095103 71 82 2.0 6.0 0.00 0.00 0.00 70 1024.3
20260831095003 72 81 2.0 6.0 0.00 0.00 0.00 71 1024.3
20260831094903 72 82 2.0 6.0 0.00 0.00 0.00 69 1024.2
20260831094803 72 78 2.0 6.0 0.00 0.00 0.00 69 1024.1
20260831094724 72 75 2.0 6.0 0.00 0.00 0.00 72 1024.1
20260831094603 72 74 2.0 6.0 0.00 0.00 0.00 72 1024.4
20260831094503 72 78 2.0 6.0 0.00 0.00 0.00 71 1024.2
20260831094403 72 60 1.0 3.0 0.00 0.00 0.00 72 1024.3
20260831094303 72 55 1.0 3.0 0.00 0.00 0.00 71 1024.3
20260831094203 71 58 1.0 4.0 0.00 0.00 0.00 71 1024.2
20260831094103 71 60 1.0 4.0 0.00 0.00 0.00 70 1024.2
20260831094003 71 62 1.0 4.0 0.00 0.00 0.00 69 1024.2
20260831093903 71 63 2.0 4.0 0.00 0.00 0.00 71 1024.2
20260831093803 71 72 2.0 4.0 0.00 0.00 0.00 71 1024.1
20260831093703 71 75 2.0 4.0 0.00 0.00 0.00 70 1024.1
20260831093603 71 74 2.0 4.0 0.00 0.00 0.00 72 1024.1
20260831093503 71 74 2.0 4.0 0.00 0.00 0.00 74 1024.1
20260831093403 71 79 2.0 4.0 0.00 0.00 0.00 75 1024.2
20260831093303 70 80 2.0 4.0 0.00 0.00 0.00 75 1024.3
20260831093203 70 81 2.0 4.0 0.00 0.00 0.00 74 1024.3
20260831093103 70 78 2.0 3.0 0.00 0.00 0.00 76 1024.3
20260831093024 71 74 2.0 3.0 0.00 0.00 0.00 77 1024.3
20260831092924 71 76 2.0 3.0 0.00 0.00 0.00 76 1024.3
20260831092824 70 67 2.0 3.0 0.00 0.00 0.00 76 1024.2
20260831092724 70 65 2.0 4.0 0.00 0.00 0.00 78 1024.2
20260831092603 69 74 2.0 4.0 0.00 0.00 0.00 78 1024.4
20260831092503 69 71 2.0 4.0 0.00 0.00 0.00 79 1024.2
20260831092403 69 67 1.0 4.0 0.00 0.00 0.00 78 1024.4
20260831092306 69 60 1.0 4.0 0.00 0.00 0.00 79 1024.4
20260831092203 69 59 1.0 4.0 0.00 0.00 0.00 79 1024.2
20260831092103 69 61 1.0 4.0 0.00 0.00 0.00 79 1024.2
20260831092003 69 70 2.0 4.0 0.00 0.00 0.00 78 1024.4
20260831091903 69 70 2.0 4.0 0.00 0.00 0.00 78 1024.4
20260831091803 69 72 2.0 4.0 0.00 0.00 0.00 78 1024.4
20260831091724 69 77 2.0 4.0 0.00 0.00 0.00 79 1024.5
20260831091603 69 68 2.0 3.0 0.00 0.00 0.00 81 1024.5
20260831091503 68 69 2.0 3.0 0.00 0.00 0.00 81 1024.3
20260831091403 68 75 2.0 3.0 0.00 0.00 0.00 81 1024.3
20260831091303 67 75 2.0 3.0 0.00 0.00 0.00 82 1024.3
20260831091203 67 74 2.0 3.0 0.00 0.00 0.00 83 1024.3
20260831091103 67 73 2.0 3.0 0.00 0.00 0.00 83 1024.2
20260831091003 67 66 2.0 3.0 0.00 0.00 0.00 84 1024.5
20260831090924 67 66 2.0 3.0 0.00 0.00 0.00 84 1024.5
20260831090803 66 63 2.0 3.0 0.00 0.00 0.00 85 1024.5
20260831090724 66 63 2.0 3.0 0.00 0.00 0.00 85 1024.5
20260831090603 66 57 2.0 3.0 0.00 0.00 0.00 85 1024.3
20260831090503 66 66 2.0 3.0 0.00 0.00 0.00 85 1024.4
20260831090403 66 66 2.0 3.0 0.00 0.00 0.00 85 1024.4
20260831090303 66 63 2.0 3.0 0.00 0.00 0.00 86 1024.1
20260831090203 66 59 2.0 3.0 0.00 0.00 0.00 87 1024.3
20260831090003 66 64 2.0 3.0 0.00 0.00 0.00 87 1024.3
20260831085903 66 65 2.0 3.0 0.00 0.00 0.00 87 1024.3
20260831085803 66 64 2.0 3.0 0.00 0.00 0.00 87 1024.4
20260831085703 65 64 2.0 3.0 0.00 0.00 0.00 88 1024.5
20260831085603 65 69 2.0 3.0 0.00 0.00 0.00 88 1024.4
20260831085524 65 68 2.0 3.0 0.00 0.00 0.00 88 1024.4
20260831085403 65 64 2.0 3.0 0.00 0.00 0.00 88 1024.3
20260831085306 65 64 2.0 3.0 0.00 0.00 0.00 88 1024.3
20260831085203 65 66 2.0 3.0 0.00 0.00 0.00 88 1024.3
20260831085103 65 66 2.0 3.0 0.00 0.00 0.00 88 1024.3
20260831085024 65 61 2.0 3.0 0.00 0.00 0.00 89 1024.1
20260831084903 65 62 2.0 3.0 0.00 0.00 0.00 89 1024.3
20260831084803 65 62 2.0 3.0 0.00 0.00 0.00 88 1024.2
20260831084703 64 62 2.0 3.0 0.00 0.00 0.00 89 1024.2
20260831084624 64 63 2.0 3.0 0.00 0.00 0.00 88 1024.4
20260831084524 64 55 2.0 3.0 0.00 0.00 0.00 89 1024.4
20260831084403 64 54 2.0 3.0 0.00 0.00 0.00 89 1024.2
20260831084303 64 55 2.0 2.0 0.00 0.00 0.00 89 1024.2
20260831084203 64 53 1.0 2.0 0.00 0.00 0.00 89 1024.4
20260831084103 64 57 1.0 3.0 0.00 0.00 0.00 90 1024.3
20260831084003 64 63 2.0 3.0 0.00 0.00 0.00 90 1024.3
20260831083903 64 65 1.0 3.0 0.00 0.00 0.00 90 1024.3
20260831083803 64 67 1.0 3.0 0.00 0.00 0.00 90 1024.1
20260831083703 63 66 1.0 3.0 0.00 0.00 0.00 90 1024.2
20260831083624 63 65 1.0 3.0 0.00 0.00 0.00 90 1024.2
20260831083503 63 65 2.0 3.0 0.00 0.00 0.00 90 1024.2
20260831083403 63 67 2.0 3.0 0.00 0.00 0.00 90 1024.2
20260831083303 64 67 2.0 3.0 0.00 0.00 0.00 91 1024.4
20260831083203 64 63 2.0 3.0 0.00 0.00 0.00 91 1024.3
20260831083124 63 61 2.0 3.0 0.00 0.00 0.00 92 1024.3
20260831083003 63 61 2.0 3.0 0.00 0.00 0.00 92 1024.4
20260831082924 63 55 2.0 2.0 0.00 0.00 0.00 92 1024.3
20260831082824 63 56 2.0 3.0 0.00 0.00 0.00 92 1024.2
20260831082724 63 59 2.0 3.0 0.00 0.00 0.00 92 1024.2
20260831082603 63 59 2.0 3.0 0.00 0.00 0.00 92 1024.3
20260831082503 63 63 2.0 3.0 0.00 0.00 0.00 93 1024.2
20260831082403 63 62 2.0 3.0 0.00 0.00 0.00 92 1024.2
20260831082306 63 61 2.0 3.0 0.00 0.00 0.00 93 1024.2
20260831082203 63 63 2.0 3.0 0.00 0.00 0.00 93 1024.3
20260831082103 63 63 2.0 3.0 0.00 0.00 0.00 93 1024.2
20260831082003 63 60 2.0 3.0 0.00 0.00 0.00 93 1024.2
20260831081903 63 61 2.0 3.0 0.00 0.00 0.00 93 1024.2
20260831081803 62 62 2.0 3.0 0.00 0.00 0.00 93 1024.1
20260831081724 62 61 2.0 3.0 0.00 0.00 0.00 94 1024.2
20260831081603 62 58 2.0 3.0 0.00 0.00 0.00 93 1024.3
20260831081503 62 55 2.0 2.0 0.00 0.00 0.00 94 1024.3
20260831081403 62 54 2.0 2.0 0.00 0.00 0.00 93 1024.1
20260831081324 62 55 2.0 2.0 0.00 0.00 0.00 94 1024.1
20260831081203 62 54 1.0 2.0 0.00 0.00 0.00 94 1024.2
20260831081124 62 54 1.0 2.0 0.00 0.00 0.00 94 1024.2
20260831081024 62 55 1.0 2.0 0.00 0.00 0.00 94 1024.2
20260831080924 62 53 1.0 2.0 0.00 0.00 0.00 94 1024.2
20260831080824 62 51 1.0 2.0 0.00 0.00 0.00 94 1024.2
20260831080703 62 41 1.0 2.0 0.00 0.00 0.00 94 1024.2
20260831080603 62 38 1.0 2.0 0.00 0.00 0.00 94 1024.3
20260831080503 62 23 1.0 2.0 0.00 0.00 0.00 95 1024.4
20260831080424 62 26 1.0 2.0 0.00 0.00 0.00 95 1024.2
20260831080324 62 26 1.0 2.0 0.00 0.00 0.00 95 1024.2
20260831080203 62 24 1.0 2.0 0.00 0.00 0.00 95 1024.1
20260831080003 62 37 1.0 2.0 0.00 0.00 0.00 95 1024.3
20260831075903 62 38 1.0 2.0 0.00 0.00 0.00 95 1024.3
20260831075824 62 37 1.0 2.0 0.00 0.00 0.00 96 1024.3
20260831075703 62 38 2.0 2.0 0.00 0.00 0.00 96 1024.2
20260831075624 62 51 2.0 3.0 0.00 0.00 0.00 96 1024.2
20260831075503 62 58 2.0 3.0 0.00 0.00 0.00 96 1024.2
20260831075403 62 59 2.0 3.0 0.00 0.00 0.00 96 1024.2
20260831075306 61 59 2.0 3.0 0.00 0.00 0.00 96 1024.1
20260831075203 61 60 2.0 3.0 0.00 0.00 0.00 96 1024.2
20260831075124 61 62 2.0 3.0 0.00 0.00 0.00 96 1024.2
20260831075003 61 60 2.0 3.0 0.00 0.00 0.00 96 1024.0
20260831074924 61 56 2.0 3.0 0.00 0.00 0.00 96 1024.0
20260831074803 61 57 2.0 3.0 0.00 0.00 0.00 96 1024.1
20260831074703 61 58 2.0 3.0 0.00 0.00 0.00 96 1024.1
20260831074603 61 58 2.0 3.0 0.00 0.00 0.00 96 1024.1
20260831074524 61 53 2.0 2.0 0.00 0.00 0.00 96 1024.1
20260831074403 61 52 2.0 2.0 0.00 0.00 0.00 96 1024.1
20260831074303 61 52 2.0 2.0 0.00 0.00 0.00 96 1024.1
20260831074203 61 51 2.0 2.0 0.00 0.00 0.00 96 1024.1
20260831074124 61 52 1.0 2.0 0.00 0.00 0.00 96 1024.0
20260831074003 61 52 2.0 2.0 0.00 0.00 0.00 96 1024.0
20260831073903 61 52 2.0 2.0 0.00 0.00 0.00 96 1024.0
20260831073824 60 52 1.0 2.0 0.00 0.00 0.00 97 1023.9
20260831073703 60 54 2.0 2.0 0.00 0.00 0.00 97 1024.0
20260831073603 60 54 2.0 2.0 0.00 0.00 0.00 97 1024.1
20260831073503 60 55 2.0 2.0 0.00 0.00 0.00 97 1024.1
20260831073424 60 63 2.0 3.0 0.00 0.00 0.00 97 1024.1
20260831073303 60 65 2.0 3.0 0.00 0.00 0.00 97 1023.9
20260831073203 60 65 2.0 3.0 0.00 0.00 0.00 97 1024.1
20260831073103 60 64 2.0 3.0 0.00 0.00 0.00 97 1024.1
20260831073003 60 64 2.0 3.0 0.00 0.00 0.00 97 1024.0
20260831072903 60 68 2.0 3.0 0.00 0.00 0.00 97 1023.8
20260831072824 60 70 2.0 3.0 0.00 0.00 0.00 97 1024.0
20260831072703 60 71 2.0 3.0 0.00 0.00 0.00 97 1024.0
20260831072603 60 72 2.0 3.0 0.00 0.00 0.00 98 1024.0
20260831072503 60 69 2.0 3.0 0.00 0.00 0.00 98 1024.0
20260831072403 60 63 2.0 3.0 0.00 0.00 0.00 98 1023.9
20260831072306 60 62 2.0 3.0 0.00 0.00 0.00 98 1023.9
20260831072203 60 68 2.0 3.0 0.00 0.00 0.00 98 1024.0
20260831072103 60 70 2.0 3.0 0.00 0.00 0.00 98 1024.1
20260831072024 60 72 2.0 3.0 0.00 0.00 0.00 98 1023.8
20260831071904 60 68 2.0 3.0 0.00 0.00 0.00 98 1023.9
20260831071803 60 68 2.0 3.0 0.00 0.00 0.00 98 1023.9
20260831071703 60 68 2.0 3.0 0.00 0.00 0.00 98 1023.9
20260831071603 59 67 2.0 3.0 0.00 0.00 0.00 98 1023.8
20260831071503 59 68 2.0 3.0 0.00 0.00 0.00 98 1023.8
20260831071424 59 69 2.0 3.0 0.00 0.00 0.00 98 1023.9
20260831071305 59 67 2.0 3.0 0.00 0.00 0.00 98 1023.6
20260831071203 59 61 2.0 3.0 0.00 0.00 0.00 98 1023.7
20260831071103 59 58 2.0 3.0 0.00 0.00 0.00 99 1023.7
20260831071003 59 56 2.0 3.0 0.00 0.00 0.00 99 1023.7
20260831070903 59 53 1.0 3.0 0.00 0.00 0.00 99 1023.8
20260831070803 59 49 1.0 3.0 0.00 0.00 0.00 99 1023.6
20260831070703 59 46 1.0 2.0 0.00 0.00 0.00 99 1023.6
20260831070603 59 44 1.0 2.0 0.00 0.00 0.00 99 1023.9
20260831070503 59 43 1.0 2.0 0.00 0.00 0.00 99 1023.8
20260831070403 59 43 1.0 2.0 0.00 0.00 0.00 99 1023.8
20260831070303 59 42 1.0 2.0 0.00 0.00 0.00 99 1023.8
20260831070203 59 42 1.0 2.0 0.00 0.00 0.00 99 1023.7
20260831070003 59 41 1.0 2.0 0.00 0.00 0.00 99 1023.7
20260831065903 59 41 1.0 2.0 0.00 0.00 0.00 99 1023.7
20260831065803 59 41 1.0 2.0 0.00 0.00 0.00 99 1023.7
20260831065724 59 41 1.0 2.0 0.00 0.00 0.00 99 1023.6
20260831065603 59 41 1.0 2.0 0.00 0.00 0.00 99 1023.7
20260831065524 59 41 1.0 2.0 0.00 0.00 0.00 99 1023.7
20260831065403 59 44 1.0 2.0 0.00 0.00 0.00 99 1023.7
20260831065306 59 46 1.0 2.0 0.00 0.00 0.00 99 1023.7
20260831065203 59 46 1.0 2.0 0.00 0.00 0.00 99 1023.6
20260831065103 59 47 1.0 2.0 0.00 0.00 0.00 99 1023.6
20260831065024 59 47 1.0 2.0 0.00 0.00 0.00 99 1023.6
20260831064903 59 47 1.0 2.0 0.00 0.00 0.00 99 1023.5
20260831064803 59 47 1.0 2.0 0.00 0.00 0.00 99 1023.8
20260831064703 59 47 1.0 2.0 0.00 0.00 0.00 99 1023.8
20260831064603 59 47 1.0 2.0 0.00 0.00 0.00 99 1023.5
20260831064503 59 48 1.0 2.0 0.00 0.00 0.00 99 1023.7
20260831064403 59 45 1.0 2.0 0.00 0.00 0.00 99 1023.7
20260831064324 59 42 1.0 2.0 0.00 0.00 0.00 99 1023.6
20260831064203 59 42 1.0 2.0 0.00 0.00 0.00 99 1023.5
20260831064103 58 41 1.0 2.0 0.00 0.00 0.00 99 1023.6
20260831064003 58 39 1.0 2.0 0.00 0.00 0.00 99 1023.8
20260831063903 58 38 1.0 2.0 0.00 0.00 0.00 99 1023.5
20260831063803 58 36 0.0 1.0 0.00 0.00 0.00 99 1023.5
20260831063703 58 37 1.0 1.0 0.00 0.00 0.00 99 1023.3
20260831063603 58 36 1.0 1.0 0.00 0.00 0.00 99 1023.6
20260831063503 58 35 1.0 1.0 0.00 0.00 0.00 99 1023.3
20260831063403 58 35 1.0 1.0 0.00 0.00 0.00 99 1023.3
20260831063303 58 34 1.0 1.0 0.00 0.00 0.00 99 1023.7
20260831063203 58 33 1.0 1.0 0.00 0.00 0.00 99 1023.3
20260831063103 58 33 1.0 1.0 0.00 0.00 0.00 99 1023.5
20260831063003 58 32 1.0 1.0 0.00 0.00 0.00 99 1023.2
20260831062903 58 31 1.0 1.0 0.00 0.00 0.00 99 1023.5
20260831062824 58 31 1.0 1.0 0.00 0.00 0.00 99 1023.2
20260831062703 58 29 0.0 1.0 0.00 0.00 0.00 99 1023.2
20260831062603 58 28 0.0 1.0 0.00 0.00 0.00 99 1023.5
20260831062503 58 28 0.0 1.0 0.00 0.00 0.00 99 1023.3
20260831062424 58 30 0.0 1.0 0.00 0.00 0.00 99 1023.3
20260831062324 58 31 0.0 1.0 0.00 0.00 0.00 99 1023.3
20260831062203 58 31 0.0 1.0 0.00 0.00 0.00 99 1023.3
20260831062103 58 31 0.0 1.0 0.00 0.00 0.00 99 1023.3
20260831062024 58 36 0.0 2.0 0.00 0.00 0.00 99 1023.3
20260831061903 58 40 1.0 2.0 0.00 0.00 0.00 99 1023.3
20260831061803 58 40 1.0 2.0 0.00 0.00 0.00 99 1023.3
20260831061703 58 42 1.0 2.0 0.00 0.00 0.00 99 1023.3
20260831061603 58 43 1.0 2.0 0.00 0.00 0.00 99 1023.3
20260831061503 58 44 1.0 2.0 0.00 0.00 0.00 99 1023.3
20260831061403 58 45 1.0 2.0 0.00 0.00 0.00 99 1023.2
20260831061303 58 49 1.0 3.0 0.00 0.00 0.00 99 1023.3
20260831061203 58 48 1.0 3.0 0.00 0.00 0.00 99 1023.1
20260831061103 58 48 1.0 3.0 0.00 0.00 0.00 99 1023.1
20260831061003 58 49 1.0 3.0 0.00 0.00 0.00 99 1023.1
20260831060903 58 48 1.0 3.0 0.00 0.00 0.00 99 1023.2
20260831060803 58 44 1.0 3.0 0.00 0.00 0.00 99 1023.1
20260831060703 58 43 1.0 3.0 0.00 0.00 0.00 99 1023.1
20260831060603 58 41 1.0 3.0 0.00 0.00 0.00 99 1023.2
20260831060503 58 41 1.0 3.0 0.00 0.00 0.00 99 1023.5
20260831060403 58 38 1.0 3.0 0.00 0.00 0.00 99 1023.2
20260831060303 58 27 1.0 1.0 0.00 0.00 0.00 99 1023.2
20260831060203 58 25 1.0 1.0 0.00 0.00 0.00 99 1023.2
20260831060003 58 25 1.0 1.0 0.00 0.00 0.00 99 1023.1
20260831055903 58 25 0.0 1.0 0.00 0.00 0.00 99 1023.1
20260831055803 58 26 0.0 1.0 0.00 0.00 0.00 99 1023.0
20260831055703 58 26 0.0 1.0 0.00 0.00 0.00 98 1023.2
20260831055624 58 27 1.0 1.0 0.00 0.00 0.00 99 1023.1
20260831055503 58 27 1.0 2.0 0.00 0.00 0.00 99 1023.1
20260831055403 58 30 1.0 2.0 0.00 0.00 0.00 98 1023.3
20260831055306 58 30 1.0 2.0 0.00 0.00 0.00 98 1023.2
20260831055203 58 31 1.0 2.0 0.00 0.00 0.00 99 1023.1
20260831055103 58 31 1.0 2.0 0.00 0.00 0.00 98 1023.1
20260831055024 58 31 1.0 2.0 0.00 0.00 0.00 98 1023.3
20260831054903 58 32 1.0 2.0 0.00 0.00 0.00 98 1023.1
20260831054824 58 32 1.0 2.0 0.00 0.00 0.00 98 1023.2
20260831054703 58 32 1.0 2.0 0.00 0.00 0.00 98 1023.2
20260831054603 58 33 1.0 2.0 0.00 0.00 0.00 98 1023.5
20260831054503 58 33 1.0 2.0 0.00 0.00 0.00 98 1023.2
20260831054403 58 33 1.0 2.0 0.00 0.00 0.00 98 1023.3
20260831054324 58 33 1.0 2.0 0.00 0.00 0.00 98 1023.3
20260831054203 58 33 1.0 1.0 0.00 0.00 0.00 98 1023.2
20260831054103 58 34 1.0 1.0 0.00 0.00 0.00 98 1023.5
20260831054024 58 34 1.0 1.0 0.00 0.00 0.00 98 1023.2
20260831053903 58 36 1.0 1.0 0.00 0.00 0.00 98 1023.2
20260831053803 58 37 1.0 1.0 0.00 0.00 0.00 98 1023.2
20260831053703 58 38 1.0 1.0 0.00 0.00 0.00 98 1023.2
20260831053603 58 41 1.0 1.0 0.00 0.00 0.00 98 1023.1
20260831053503 58 43 1.0 2.0 0.00 0.00 0.00 98 1023.1
20260831053403 58 44 1.0 2.0 0.00 0.00 0.00 98 1023.0
20260831053324 58 45 1.0 2.0 0.00 0.00 0.00 98 1023.1
20260831053203 58 46 1.0 2.0 0.00 0.00 0.00 98 1023.3
20260831053103 58 46 1.0 2.0 0.00 0.00 0.00 98 1023.3
20260831053003 58 47 1.0 2.0 0.00 0.00 0.00 98 1023.1
20260831052903 58 47 1.0 2.0 0.00 0.00 0.00 98 1023.2
20260831052803 58 49 1.0 2.0 0.00 0.00 0.00 98 1023.2
20260831052703 58 48 1.0 2.0 0.00 0.00 0.00 98 1023.2
20260831052603 58 48 1.0 2.0 0.00 0.00 0.00 98 1023.0
20260831052503 58 48 1.0 2.0 0.00 0.00 0.00 98 1023.1
20260831052403 58 47 1.0 2.0 0.00 0.00 0.00 98 1022.9
20260831052306 58 46 1.0 2.0 0.00 0.00 0.00 98 1022.9
20260831052203 58 46 1.0 2.0 0.00 0.00 0.00 98 1023.1
20260831052103 58 46 1.0 2.0 0.00 0.00 0.00 98 1023.1
20260831052003 58 46 1.0 2.0 0.00 0.00 0.00 98 1023.2
20260831051903 58 46 1.0 2.0 0.00 0.00 0.00 98 1023.2
20260831051803 58 47 1.0 2.0 0.00 0.00 0.00 98 1023.0
20260831051724 58 45 1.0 2.0 0.00 0.00 0.00 98 1022.9
20260831051624 58 46 1.0 2.0 0.00 0.00 0.00 98 1023.0
20260831051503 58 46 1.0 2.0 0.00 0.00 0.00 98 1023.0
20260831051403 58 45 1.0 2.0 0.00 0.00 0.00 98 1023.0
20260831051303 58 44 1.0 2.0 0.00 0.00 0.00 98 1023.0
20260831051203 58 43 1.0 2.0 0.00 0.00 0.00 98 1023.1
20260831051103 58 43 1.0 2.0 0.00 0.00 0.00 98 1023.1
20260831051003 58 43 1.0 2.0 0.00 0.00 0.00 98 1022.9
20260831050903 58 42 1.0 2.0 0.00 0.00 0.00 98 1023.1
20260831050824 58 40 1.0 2.0 0.00 0.00 0.00 98 1023.0
20260831050703 58 40 1.0 2.0 0.00 0.00 0.00 98 1023.0
20260831050603 58 39 1.0 2.0 0.00 0.00 0.00 98 1023.0
20260831050503 58 36 0.0 2.0 0.00 0.00 0.00 98 1022.9
20260831050403 58 34 0.0 1.0 0.00 0.00 0.00 98 1023.2
20260831050303 58 34 0.0 1.0 0.00 0.00 0.00 98 1023.2
20260831050203 58 33 0.0 1.0 0.00 0.00 0.00 98 1022.9
20260831050103 58 32 0.0 2.0 0.00 0.00 0.00 98 1022.9
20260831050003 58 32 0.0 2.0 0.00 0.00 0.00 98 1023.1
20260831045903 58 31 0.0 2.0 0.00 0.00 0.00 98 1023.1
20260831045803 58 31 0.0 2.0 0.00 0.00 0.00 98 1022.8
20260831045704 58 31 0.0 2.0 0.00 0.00 0.00 98 1022.8
20260831045603 58 31 0.0 2.0 0.00 0.00 0.00 98 1023.1
20260831045503 58 31 1.0 2.0 0.00 0.00 0.00 98 1023.1
20260831045403 58 31 1.0 2.0 0.00 0.00 0.00 98 1022.9
20260831045324 58 31 1.0 2.0 0.00 0.00 0.00 98 1023.0
20260831045203 58 31 1.0 2.0 0.00 0.00 0.00 98 1023.1
20260831045103 58 31 1.0 2.0 0.00 0.00 0.00 98 1023.1
20260831045003 58 31 1.0 1.0 0.00 0.00 0.00 98 1022.9
20260831044903 58 31 1.0 1.0 0.00 0.00 0.00 98 1023.0
20260831044803 58 32 1.0 1.0 0.00 0.00 0.00 98 1023.0
20260831044703 58 32 1.0 1.0 0.00 0.00 0.00 98 1023.0
20260831044603 58 32 1.0 1.0 0.00 0.00 0.00 98 1023.0
20260831044503 58 33 1.0 1.0 0.00 0.00 0.00 98 1022.7
20260831044403 58 33 1.0 1.0 0.00 0.00 0.00 98 1022.9
20260831044303 58 34 1.0 1.0 0.00 0.00 0.00 98 1022.9
20260831044203 58 34 1.0 1.0 0.00 0.00 0.00 98 1022.9
20260831044103 58 34 1.0 1.0 0.00 0.00 0.00 98 1022.8
20260831044003 58 33 1.0 1.0 0.00 0.00 0.00 98 1022.9
20260831043903 58 33 1.0 1.0 0.00 0.00 0.00 98 1022.9
20260831043803 58 32 1.0 1.0 0.00 0.00 0.00 98 1022.9
20260831043703 58 32 1.0 1.0 0.00 0.00 0.00 98 1022.9
20260831043603 58 33 1.0 1.0 0.00 0.00 0.00 98 1023.0
20260831043503 58 34 1.0 1.0 0.00 0.00 0.00 98 1023.0
20260831043403 58 34 1.0 1.0 0.00 0.00 0.00 98 1023.0
20260831043303 58 34 1.0 1.0 0.00 0.00 0.00 98 1022.9
20260831043203 58 35 1.0 1.0 0.00 0.00 0.00 98 1022.9
20260831043103 58 35 1.0 1.0 0.00 0.00 0.00 98 1022.9
20260831043003 58 37 1.0 1.0 0.00 0.00 0.00 98 1022.9
20260831042903 58 41 1.0 2.0 0.00 0.00 0.00 98 1022.9
20260831042803 58 43 1.0 2.0 0.00 0.00 0.00 98 1022.8
20260831042703 58 44 1.0 2.0 0.00 0.00 0.00 98 1022.8
20260831042603 58 44 1.0 2.0 0.00 0.00 0.00 98 1023.0
20260831042503 58 44 1.0 2.0 0.00 0.00 0.00 98 1022.9
20260831042403 58 46 1.0 2.0 0.00 0.00 0.00 98 1022.8
20260831042306 58 46 1.0 2.0 0.00 0.00 0.00 98 1022.8
20260831042203 58 46 1.0 2.0 0.00 0.00 0.00 98 1022.9
20260831042124 58 46 1.0 2.0 0.00 0.00 0.00 98 1023.0
20260831042003 58 45 1.0 2.0 0.00 0.00 0.00 98 1022.9
20260831041903 58 43 1.0 2.0 0.00 0.00 0.00 98 1022.9
20260831041803 58 42 1.0 2.0 0.00 0.00 0.00 98 1022.8
20260831041703 58 44 1.0 2.0 0.00 0.00 0.00 98 1022.9
20260831041603 58 48 1.0 2.0 0.00 0.00 0.00 98 1022.9
20260831041503 58 48 1.0 2.0 0.00 0.00 0.00 98 1022.9
20260831041403 58 48 1.0 2.0 0.00 0.00 0.00 98 1022.9
20260831041324 58 48 1.0 2.0 0.00 0.00 0.00 98 1022.8
20260831041203 58 52 1.0 2.0 0.00 0.00 0.00 98 1023.0
20260831041103 58 53 1.0 2.0 0.00 0.00 0.00 98 1023.0
20260831041003 58 56 1.0 2.0 0.00 0.00 0.00 98 1022.9
20260831040903 58 56 1.0 2.0 0.00 0.00 0.00 98 1022.7
20260831040803 58 56 1.0 2.0 0.00 0.00 0.00 98 1022.9
20260831040703 58 55 1.0 2.0 0.00 0.00 0.00 98 1022.9
20260831040603 58 53 1.0 2.0 0.00 0.00 0.00 98 1022.8
20260831040503 58 52 1.0 2.0 0.00 0.00 0.00 98 1022.7
20260831040424 58 51 1.0 2.0 0.00 0.00 0.00 98 1022.8
20260831040324 58 51 1.0 2.0 0.00 0.00 0.00 98 1022.8
20260831040203 58 48 1.0 2.0 0.00 0.00 0.00 98 1022.8
20260831040103 58 48 1.0 2.0 0.00 0.00 0.00 98 1023.0
20260831040003 58 44 1.0 2.0 0.00 0.00 0.00 98 1023.1
20260831035924 58 43 1.0 1.0 0.00 0.00 0.00 98 1023.1
20260831035803 58 43 1.0 1.0 0.00 0.00 0.00 98 1022.8
20260831035703 58 43 1.0 1.0 0.00 0.00 0.00 98 1023.0
20260831035603 58 43 1.0 1.0 0.00 0.00 0.00 98 1023.1
20260831035503 58 43 1.0 1.0 0.00 0.00 0.00 98 1023.1
20260831035403 58 43 1.0 1.0 0.00 0.00 0.00 98 1022.8
20260831035306 58 43 1.0 1.0 0.00 0.00 0.00 98 1022.9
20260831035203 58 43 1.0 1.0 0.00 0.00 0.00 98 1022.9
20260831035103 58 43 1.0 1.0 0.00 0.00 0.00 98 1022.9
20260831035024 58 43 1.0 1.0 0.00 0.00 0.00 98 1023.0
20260831034924 58 43 1.0 1.0 0.00 0.00 0.00 98 1022.9
20260831034803 58 42 1.0 1.0 0.00 0.00 0.00 98 1023.1
20260831034703 58 42 1.0 1.0 0.00 0.00 0.00 98 1023.1
20260831034603 58 42 1.0 1.0 0.00 0.00 0.00 98 1022.8
20260831034503 58 42 0.0 1.0 0.00 0.00 0.00 98 1023.1
20260831034424 58 42 0.0 1.0 0.00 0.00 0.00 98 1023.2
20260831034324 58 41 0.0 1.0 0.00 0.00 0.00 98 1023.2
20260831034203 58 41 0.0 1.0 0.00 0.00 0.00 98 1023.0
20260831034124 58 41 0.0 1.0 0.00 0.00 0.00 98 1023.1
20260831034003 58 41 0.0 1.0 0.00 0.00 0.00 97 1023.2
20260831033903 58 41 0.0 1.0 0.00 0.00 0.00 97 1023.2
20260831033824 58 0 0.0 0.0 0.00 0.00 0.00 97 1023.1
20260831033724 57 0 0.0 0.0 0.00 0.00 0.00 97 1022.9
20260831033603 57 0 0.0 0.0 0.00 0.00 0.00 97 1023.0
20260831033503 57 0 0.0 0.0 0.00 0.00 0.00 97 1023.0
20260831033403 57 0 0.0 0.0 0.00 0.00 0.00 97 1023.2
20260831033303 57 0 0.0 0.0 0.00 0.00 0.00 97 1023.0
20260831033203 57 41 0.0 1.0 0.00 0.00 0.00 97 1023.1
20260831033103 57 41 0.0 1.0 0.00 0.00 0.00 97 1023.1
20260831033003 57 41 0.0 1.0 0.00 0.00 0.00 97 1023.0
20260831032903 57 41 0.0 1.0 0.00 0.00 0.00 97 1023.1
20260831032803 57 41 0.0 1.0 0.00 0.00 0.00 97 1023.1
20260831032703 57 41 0.0 1.0 0.00 0.00 0.00 97 1023.1
20260831032603 58 41 0.0 1.0 0.00 0.00 0.00 97 1023.0
20260831032524 58 41 0.0 1.0 0.00 0.00 0.00 97 1023.1
20260831032403 58 41 0.0 1.0 0.00 0.00 0.00 97 1023.1
20260831032324 58 41 0.0 1.0 0.00 0.00 0.00 97 1023.1
20260831032203 58 41 0.0 1.0 0.00 0.00 0.00 97 1023.1
20260831032103 58 41 0.0 1.0 0.00 0.00 0.00 97 1023.0
20260831032003 58 41 0.0 1.0 0.00 0.00 0.00 97 1023.0
20260831031903 58 41 0.0 1.0 0.00 0.00 0.00 97 1023.0
20260831031803 58 41 0.0 1.0 0.00 0.00 0.00 97 1023.0
20260831031703 58 41 0.0 1.0 0.00 0.00 0.00 97 1023.1
20260831031603 58 41 0.0 1.0 0.00 0.00 0.00 97 1022.9
20260831031503 58 41 0.0 1.0 0.00 0.00 0.00 97 1022.9
20260831031403 58 41 0.0 1.0 0.00 0.00 0.00 97 1023.0
20260831031303 58 41 0.0 1.0 0.00 0.00 0.00 97 1022.9
20260831031203 58 41 0.0 1.0 0.00 0.00 0.00 97 1023.0
20260831031103 58 41 0.0 1.0 0.00 0.00 0.00 97 1023.0
20260831031003 58 41 0.0 1.0 0.00 0.00 0.00 97 1023.1
20260831030903 58 41 0.0 1.0 0.00 0.00 0.00 97 1022.9
20260831030803 58 41 0.0 1.0 0.00 0.00 0.00 97 1022.8
20260831030703 58 41 0.0 1.0 0.00 0.00 0.00 97 1022.8
20260831030603 58 41 0.0 1.0 0.00 0.00 0.00 97 1023.0
20260831030503 58 41 0.0 1.0 0.00 0.00 0.00 97 1023.0
20260831030403 58 41 0.0 1.0 0.00 0.00 0.00 97 1023.0
20260831030303 58 41 0.0 1.0 0.00 0.00 0.00 97 1023.0
20260831030203 58 41 0.0 1.0 0.00 0.00 0.00 97 1023.0
20260831030003 58 41 0.0 1.0 0.00 0.00 0.00 96 1023.0
20260831025903 58 41 0.0 1.0 0.00 0.00 0.00 97 1023.0
20260831025803 58 41 0.0 1.0 0.00 0.00 0.00 97 1023.0
20260831025703 58 41 0.0 1.0 0.00 0.00 0.00 97 1023.0
20260831025603 58 0 0.0 0.0 0.00 0.00 0.00 96 1022.9
20260831025524 58 0 0.0 0.0 0.00 0.00 0.00 96 1022.9
20260831025424 58 0 0.0 0.0 0.00 0.00 0.00 96 1023.1
20260831025306 58 0 0.0 0.0 0.00 0.00 0.00 96 1022.9
20260831025203 58 0 0.0 0.0 0.00 0.00 0.00 96 1022.9
20260831025103 58 0 0.0 0.0 0.00 0.00 0.00 96 1022.9
20260831025003 58 0 0.0 0.0 0.00 0.00 0.00 96 1023.0
20260831024903 58 0 0.0 0.0 0.00 0.00 0.00 96 1022.9
20260831024803 58 0 0.0 0.0 0.00 0.00 0.00 96 1023.0
20260831024703 58 0 0.0 0.0 0.00 0.00 0.00 96 1023.0
20260831024603 58 0 0.0 0.0 0.00 0.00 0.00 96 1023.0
20260831024503 58 0 0.0 0.0 0.00 0.00 0.00 96 1022.9
20260831024403 58 0 0.0 0.0 0.00 0.00 0.00 96 1022.9
20260831024303 58 0 0.0 0.0 0.00 0.00 0.00 96 1023.0
20260831024203 58 0 0.0 0.0 0.00 0.00 0.00 96 1023.0
20260831024103 58 0 0.0 0.0 0.00 0.00 0.00 96 1023.2
20260831024003 58 0 0.0 0.0 0.00 0.00 0.00 96 1022.9
20260831023903 58 0 0.0 0.0 0.00 0.00 0.00 96 1022.9
20260831023824 58 0 0.0 0.0 0.00 0.00 0.00 96 1023.1
20260831023703 58 0 0.0 0.0 0.00 0.00 0.00 96 1023.0
20260831023603 58 0 0.0 0.0 0.00 0.00 0.00 96 1023.2
20260831023515 58 0 0.0 0.0 0.00 0.00 0.00 96 1023.2
20260831023403 58 0 0.0 0.0 0.00 0.00 0.00 96 1023.1
20260831023303 58 0 0.0 0.0 0.00 0.00 0.00 96 1023.1
20260831023203 58 0 0.0 0.0 0.00 0.00 0.00 96 1022.9
20260831023103 58 0 0.0 0.0 0.00 0.00 0.00 96 1023.1
20260831023003 58 0 0.0 0.0 0.00 0.00 0.00 96 1023.1
20260831022903 58 0 0.0 0.0 0.00 0.00 0.00 95 1023.0
20260831022803 58 0 0.0 0.0 0.00 0.00 0.00 96 1022.9
20260831022703 58 0 0.0 0.0 0.00 0.00 0.00 95 1022.9
20260831022603 58 0 0.0 0.0 0.00 0.00 0.00 95 1023.0
20260831022503 58 0 0.0 0.0 0.00 0.00 0.00 95 1023.0
20260831022403 58 0 0.0 0.0 0.00 0.00 0.00 95 1023.0
20260831022306 58 0 0.0 0.0 0.00 0.00 0.00 95 1023.0
20260831022203 58 0 0.0 0.0 0.00 0.00 0.00 95 1023.0
20260831022124 58 0 0.0 0.0 0.00 0.00 0.00 95 1022.8
20260831022003 58 0 0.0 0.0 0.00 0.00 0.00 95 1022.9
20260831021903 58 0 0.0 0.0 0.00 0.00 0.00 95 1022.9
20260831021803 58 0 0.0 0.0 0.00 0.00 0.00 95 1023.0
20260831021703 58 0 0.0 0.0 0.00 0.00 0.00 95 1023.0
20260831021603 58 0 0.0 0.0 0.00 0.00 0.00 95 1022.9
20260831021502 58 0 0.0 0.0 0.00 0.00 0.00 95 1022.9
20260831021424 58 41 0.0 1.0 0.00 0.00 0.00 95 1023.3
20260831021303 58 41 0.0 1.0 0.00 0.00 0.00 95 1023.1
20260831021203 59 41 0.0 1.0 0.00 0.00 0.00 95 1023.1
20260831021103 59 41 0.0 1.0 0.00 0.00 0.00 95 1023.1
20260831021024 59 41 0.0 1.0 0.00 0.00 0.00 95 1022.9
20260831020903 59 41 0.0 1.0 0.00 0.00 0.00 95 1023.1
20260831020803 59 42 0.0 1.0 0.00 0.00 0.00 95 1023.0
20260831020703 59 41 0.0 1.0 0.00 0.00 0.00 95 1022.9
20260831020603 59 41 0.0 1.0 0.00 0.00 0.00 95 1022.8
20260831020503 59 41 0.0 1.0 0.00 0.00 0.00 95 1022.9
20260831020403 59 42 0.0 1.0 0.00 0.00 0.00 95 1023.0
20260831020302 59 42 0.0 1.0 0.00 0.00 0.00 95 1022.9
20260831020203 59 42 0.0 1.0 0.00 0.00 0.00 95 1022.9
20260831020024 59 42 0.0 1.0 0.00 0.00 0.00 95 1022.8
20260831015903 59 41 0.0 1.0 0.00 0.00 0.00 95 1022.9
20260831015803 59 41 0.0 1.0 0.00 0.00 0.00 95 1022.8
20260831015724 59 41 0.0 1.0 0.00 0.00 0.00 95 1022.9
20260831015602 59 41 0.0 1.0 0.00 0.00 0.00 95 1022.9
20260831015502 59 41 0.0 1.0 0.00 0.00 0.00 95 1022.9
20260831015402 59 41 0.0 1.0 0.00 0.00 0.00 95 1022.7
20260831015305 59 41 0.0 1.0 0.00 0.00 0.00 95 1023.0
20260831015203 59 41 0.0 1.0 0.00 0.00 0.00 95 1022.9
20260831015102 59 41 0.0 1.0 0.00 0.00 0.00 95 1022.9
20260831015003 59 41 0.0 1.0 0.00 0.00 0.00 95 1022.8
20260831014902 59 41 0.0 1.0 0.00 0.00 0.00 95 1022.9
20260831014802 59 41 0.0 1.0 0.00 0.00 0.00 95 1022.8
20260831014702 59 41 0.0 1.0 0.00 0.00 0.00 95 1022.8
20260831014624 59 41 0.0 1.0 0.00 0.00 0.00 95 1022.9
20260831014502 59 41 0.0 1.0 0.00 0.00 0.00 95 1022.8
20260831014402 59 41 0.0 1.0 0.00 0.00 0.00 95 1022.7
20260831014302 59 41 0.0 1.0 0.00 0.00 0.00 95 1022.7
20260831014203 59 41 0.0 1.0 0.00 0.00 0.00 95 1022.9
20260831014102 59 41 0.0 1.0 0.00 0.00 0.00 95 1023.0
20260831014002 59 41 0.0 1.0 0.00 0.00 0.00 95 1023.0
20260831013902 59 41 0.0 1.0 0.00 0.00 0.00 95 1023.0
20260831013802 59 41 0.0 1.0 0.00 0.00 0.00 95 1022.6
20260831013703 59 42 1.0 2.0 0.00 0.00 0.00 95 1022.9
20260831013603 59 41 1.0 2.0 0.00 0.00 0.00 95 1022.8
20260831013502 59 41 1.0 2.0 0.00 0.00 0.00 95 1022.8
20260831013402 59 41 1.0 2.0 0.00 0.00 0.00 95 1022.7
20260831013324 59 40 1.0 2.0 0.00 0.00 0.00 95 1023.0
20260831013203 59 40 1.0 2.0 0.00 0.00 0.00 95 1023.0
20260831013102 59 40 1.0 2.0 0.00 0.00 0.00 95 1023.0
20260831013023 59 40 1.0 2.0 0.00 0.00 0.00 95 1022.8
20260831012903 59 39 1.0 2.0 0.00 0.00 0.00 95 1022.7
20260831012803 59 38 1.0 2.0 0.00 0.00 0.00 95 1022.8
20260831012702 59 36 0.0 1.0 0.00 0.00 0.00 95 1022.8
20260831012603 59 36 0.0 1.0 0.00 0.00 0.00 95 1022.9
20260831012503 59 35 0.0 1.0 0.00 0.00 0.00 95 1023.0
20260831012403 59 40 0.0 1.0 0.00 0.00 0.00 95 1022.9
20260831012305 59 43 0.0 1.0 0.00 0.00 0.00 95 1022.9
20260831012202 59 43 0.0 1.0 0.00 0.00 0.00 95 1022.8
20260831012124 59 44 0.0 1.0 0.00 0.00 0.00 95 1022.8
20260831012003 59 46 0.0 1.0 0.00 0.00 0.00 94 1022.7
20260831011902 59 48 0.0 1.0 0.00 0.00 0.00 94 1022.7
20260831011802 59 48 0.0 1.0 0.00 0.00 0.00 94 1022.8
20260831011702 59 48 0.0 1.0 0.00 0.00 0.00 94 1022.8
20260831011603 59 48 1.0 1.0 0.00 0.00 0.00 94 1022.7
20260831011503 59 49 1.0 2.0 0.00 0.00 0.00 94 1022.7
20260831011403 59 49 1.0 2.0 0.00 0.00 0.00 94 1022.9
20260831011302 59 49 1.0 2.0 0.00 0.00 0.00 94 1022.9
20260831011203 59 49 1.0 2.0 0.00 0.00 0.00 94 1022.8
20260831011102 59 49 1.0 2.0 0.00 0.00 0.00 94 1022.8
20260831011003 59 49 1.0 2.0 0.00 0.00 0.00 94 1022.7
20260831010903 59 49 1.0 2.0 0.00 0.00 0.00 94 1022.8
20260831010803 59 49 1.0 2.0 0.00 0.00 0.00 94 1022.7
20260831010702 59 49 1.0 2.0 0.00 0.00 0.00 94 1022.7
20260831010602 59 48 1.0 2.0 0.00 0.00 0.00 94 1022.6
20260831010503 59 48 1.0 2.0 0.00 0.00 0.00 94 1022.8
20260831010402 59 46 1.0 2.0 0.00 0.00 0.00 94 1022.9
20260831010303 59 46 1.0 2.0 0.00 0.00 0.00 94 1022.9
20260831010203 59 45 1.0 2.0 0.00 0.00 0.00 94 1022.7
20260831010003 59 44 1.0 2.0 0.00 0.00 0.00 94 1022.8
20260831005924 59 43 1.0 2.0 0.00 0.00 0.00 94 1022.8
20260831005803 59 41 1.0 2.0 0.00 0.00 0.00 94 1022.8
20260831005702 59 41 1.0 2.0 0.00 0.00 0.00 94 1022.8
20260831005624 59 43 1.0 2.0 0.00 0.00 0.00 94 1022.9
20260831005503 59 43 1.0 2.0 0.00 0.00 0.00 94 1022.9
20260831005403 59 44 1.0 2.0 0.00 0.00 0.00 94 1023.0
20260831005306 59 44 1.0 2.0 0.00 0.00 0.00 94 1022.8
20260831005203 59 44 1.0 2.0 0.00 0.00 0.00 94 1023.0
20260831005124 59 44 1.0 2.0 0.00 0.00 0.00 94 1023.0
20260831005002 59 44 1.0 2.0 0.00 0.00 0.00 94 1022.9
20260831004902 59 44 1.0 2.0 0.00 0.00 0.00 95 1022.8
20260831004803 59 45 1.0 2.0 0.00 0.00 0.00 95 1022.9
20260831004703 59 44 0.0 2.0 0.00 0.00 0.00 95 1022.9
20260831004603 59 44 0.0 2.0 0.00 0.00 0.00 95 1022.8
20260831004503 59 42 0.0 2.0 0.00 0.00 0.00 95 1022.9
20260831004402 59 39 0.0 1.0 0.00 0.00 0.00 95 1022.9
20260831004323 59 39 0.0 1.0 0.00 0.00 0.00 95 1022.9
20260831004224 59 40 0.0 1.0 0.00 0.00 0.00 95 1023.2
20260831004124 59 39 0.0 1.0 0.00 0.00 0.00 95 1023.0
20260831004003 59 38 0.0 1.0 0.00 0.00 0.00 95 1023.0
20260831003903 59 38 0.0 1.0 0.00 0.00 0.00 95 1023.0
20260831003802 59 38 0.0 1.0 0.00 0.00 0.00 95 1023.1
20260831003703 59 38 1.0 1.0 0.00 0.00 0.00 95 1023.0
20260831003603 59 38 1.0 1.0 0.00 0.00 0.00 95 1023.1
20260831003503 59 37 1.0 1.0 0.00 0.00 0.00 95 1023.1
20260831003403 59 37 1.0 1.0 0.00 0.00 0.00 95 1023.0
20260831003303 59 37 1.0 1.0 0.00 0.00 0.00 95 1023.0
20260831003202 59 37 1.0 2.0 0.00 0.00 0.00 95 1023.1
20260831003103 59 39 1.0 2.0 0.00 0.00 0.00 95 1023.1
20260831003024 59 39 1.0 2.0 0.00 0.00 0.00 95 1022.9
20260831002902 59 44 1.0 2.0 0.00 0.00 0.00 95 1023.1
20260831002802 59 48 1.0 2.0 0.00 0.00 0.00 95 1023.1
20260831002702 59 49 1.0 2.0 0.00 0.00 0.00 95 1023.1
20260831002603 59 49 1.0 2.0 0.00 0.00 0.00 95 1023.2
20260831002524 59 51 1.0 2.0 0.00 0.00 0.00 95 1023.1
20260831002403 59 52 1.0 2.0 0.00 0.00 0.00 95 1023.0
20260831002305 59 51 1.0 2.0 0.00 0.00 0.00 95 1023.3
20260831002203 59 53 1.0 2.0 0.00 0.00 0.00 95 1023.3
20260831002103 59 53 1.0 2.0 0.00 0.00 0.00 95 1023.1
20260831002003 59 52 1.0 2.0 0.00 0.00 0.00 95 1023.1
20260831001924 60 50 1.0 2.0 0.00 0.00 0.00 95 1023.1
20260831001824 60 46 1.0 2.0 0.00 0.00 0.00 95 1023.1
20260831001703 60 47 1.0 2.0 0.00 0.00 0.00 95 1023.1
20260831001603 60 47 1.0 2.0 0.00 0.00 0.00 95 1023.2
20260831001524 60 47 1.0 2.0 0.00 0.00 0.00 95 1023.2
20260831001402 60 50 1.0 2.0 0.00 0.00 0.00 95 1023.1
20260831001303 60 50 1.0 2.0 0.00 0.00 0.00 95 1023.0
20260831001203 60 50 1.0 2.0 0.00 0.00 0.00 95 1023.1
20260831001103 60 50 1.0 2.0 0.00 0.00 0.00 95 1023.1
20260831001003 60 48 1.0 2.0 0.00 0.00 0.00 95 1023.1
20260831000924 60 48 1.0 2.0 0.00 0.00 0.00 95 1023.0
20260831000824 60 49 1.0 2.0 0.00 0.00 0.00 95 1023.2
20260831000702 60 46 1.0 2.0 0.00 0.00 0.00 95 1023.2
20260831000603 60 47 1.0 2.0 0.00 0.00 0.00 95 1023.2
20260831000503 60 45 1.0 2.0 0.00 0.00 0.00 95 1023.2
20260831000403 60 41 1.0 2.0 0.00 0.00 0.00 95 1023.1
20260831000303 60 43 1.0 2.0 0.00 0.00 0.00 95 1023.1
20260831000226 60 42 1.0 2.0 0.00 0.00 0.00 95 1023.1
20260831000103 60 42 1.0 2.0 0.00 0.00 0.00 95 1023.3
20260831000003 60 42 1.0 2.0 0.00 0.00 0.00 95 1023.1
20260830235903 60 42 1.0 2.0 0.00 0.00 0.00 95 1023.2
20260830235803 60 42 1.0 2.0 0.00 0.00 0.00 95 1023.0
20260830235703 60 43 1.0 2.0 0.00 0.00 0.00 95 1023.1
20260830235603 60 42 1.0 2.0 0.00 0.00 0.00 95 1023.5
20260830235503 60 42 1.0 2.0 0.00 0.00 0.00 95 1023.1
20260830235403 60 42 1.0 2.0 0.00 0.00 0.00 95 1023.1
20260830235324 60 41 1.0 2.0 0.00 0.00 0.00 95 1023.1
20260830235203 60 43 1.0 2.0 0.00 0.00 0.00 95 1023.1
20260830235103 60 42 1.0 2.0 0.00 0.00 0.00 95 1023.1
20260830235003 60 42 1.0 2.0 0.00 0.00 0.00 95 1023.2
20260830234903 60 42 1.0 2.0 0.00 0.00 0.00 95 1023.0
20260830234803 60 48 1.0 2.0 0.00 0.00 0.00 95 1022.9
20260830234703 60 47 0.0 2.0 0.00 0.00 0.00 95 1022.9
20260830234603 60 49 0.0 2.0 0.00 0.00 0.00 95 1023.0
20260830234503 60 48 0.0 2.0 0.00 0.00 0.00 95 1023.1
20260830234403 60 48 0.0 2.0 0.00 0.00 0.00 96 1023.1
20260830234303 60 46 0.0 2.0 0.00 0.00 0.00 96 1023.1
20260830234224 60 41 0.0 1.0 0.00 0.00 0.00 96 1023.1
20260830234103 60 42 0.0 1.0 0.00 0.00 0.00 96 1023.1
20260830234024 60 40 0.0 1.0 0.00 0.00 0.00 96 1023.1
20260830233903 60 39 0.0 1.0 0.00 0.00 0.00 96 1023.1
20260830233824 60 39 0.0 1.0 0.00 0.00 0.00 95 1023.1
20260830233703 60 32 0.0 1.0 0.00 0.00 0.00 95 1023.1
20260830233603 60 32 0.0 1.0 0.00 0.00 0.00 95 1023.3
20260830233503 60 27 0.0 1.0 0.00 0.00 0.00 95 1023.3
20260830233403 60 27 0.0 1.0 0.00 0.00 0.00 95 1023.2
20260830233303 60 27 0.0 1.0 0.00 0.00 0.00 95 1023.2
20260830233224 60 25 0.0 1.0 0.00 0.00 0.00 95 1023.1
20260830233103 60 26 0.0 1.0 0.00 0.00 0.00 95 1023.1
20260830233024 60 24 0.0 1.0 0.00 0.00 0.00 95 1023.0
20260830232903 60 23 0.0 1.0 0.00 0.00 0.00 95 1023.2
20260830232824 60 21 0.0 1.0 0.00 0.00 0.00 95 1023.2
20260830232703 60 21 0.0 1.0 0.00 0.00 0.00 95 1023.2
20260830232603 60 21 0.0 1.0 0.00 0.00 0.00 95 1023.0
20260830232503 60 21 0.0 1.0 0.00 0.00 0.00 95 1023.1
20260830232403 60 26 0.0 1.0 0.00 0.00 0.00 95 1023.1
20260830232305 60 23 0.0 1.0 0.00 0.00 0.00 95 1023.1
20260830232203 60 23 0.0 1.0 0.00 0.00 0.00 95 1023.1
20260830232103 60 23 0.0 1.0 0.00 0.00 0.00 95 1023.2
20260830232003 60 18 0.0 1.0 0.00 0.00 0.00 95 1023.3
20260830231903 60 16 0.0 1.0 0.00 0.00 0.00 95 1023.3
20260830231803 60 16 0.0 1.0 0.00 0.00 0.00 95 1023.0
20260830231703 60 15 0.0 1.0 0.00 0.00 0.00 95 1023.2
20260830231603 60 14 0.0 1.0 0.00 0.00 0.00 95 1023.2
20260830231503 60 14 0.0 1.0 0.00 0.00 0.00 95 1023.2
20260830231403 60 14 0.0 1.0 0.00 0.00 0.00 95 1023.3
20260830231303 60 14 0.0 1.0 0.00 0.00 0.00 95 1023.2
20260830231203 60 14 0.0 1.0 0.00 0.00 0.00 95 1023.3
20260830231103 60 14 0.0 1.0 0.00 0.00 0.00 95 1023.3
20260830231003 60 20 0.0 1.0 0.00 0.00 0.00 95 1023.3
20260830230903 60 9 0.0 1.0 0.00 0.00 0.00 95 1023.2
20260830230803 60 7 0.0 1.0 0.00 0.00 0.00 95 1023.0
20260830230703 60 5 0.0 1.0 0.00 0.00 0.00 95 1023.0
20260830230603 60 9 0.0 1.0 0.00 0.00 0.00 95 1023.1
20260830230503 60 9 0.0 1.0 0.00 0.00 0.00 95 1023.5
20260830230424 60 11 0.0 1.0 0.00 0.00 0.00 95 1023.1
20260830230303 60 8 0.0 1.0 0.00 0.00 0.00 95 1023.1
20260830230203 60 8 0.0 1.0 0.00 0.00 0.00 95 1023.3
20260830230103 60 12 1.0 1.0 0.00 0.00 0.00 95 1023.2
20260830230003 60 16 1.0 1.0 0.00 0.00 0.00 95 1023.3
20260830225903 60 18 1.0 1.0 0.00 0.00 0.00 95 1023.3
20260830225803 60 20 1.0 1.0 0.00 0.00 0.00 95 1023.3
20260830225703 60 20 1.0 1.0 0.00 0.00 0.00 95 1023.2
20260830225603 60 21 1.0 1.0 0.00 0.00 0.00 95 1023.3
20260830225503 60 24 1.0 1.0 0.00 0.00 0.00 95 1023.3
20260830225403 60 27 1.0 1.0 0.00 0.00 0.00 95 1023.0
20260830225324 60 28 1.0 1.0 0.00 0.00 0.00 95 1023.3
20260830225203 60 35 1.0 2.0 0.00 0.00 0.00 95 1023.5
20260830225103 60 35 1.0 2.0 0.00 0.00 0.00 95 1023.5
20260830225003 60 35 1.0 2.0 0.00 0.00 0.00 94 1023.1
20260830224903 60 35 1.0 2.0 0.00 0.00 0.00 94 1023.1
20260830224803 60 40 1.0 2.0 0.00 0.00 0.00 94 1023.1
20260830224703 60 40 1.0 2.0 0.00 0.00 0.00 94 1023.1
20260830224603 60 40 1.0 2.0 0.00 0.00 0.00 94 1023.3
20260830224503 60 40 1.0 2.0 0.00 0.00 0.00 94 1023.1
20260830224403 60 40 1.0 2.0 0.00 0.00 0.00 94 1023.2
20260830224303 60 41 1.0 2.0 0.00 0.00 0.00 94 1023.2
20260830224203 60 43 1.0 2.0 0.00 0.00 0.00 94 1023.3
20260830224103 60 42 0.0 2.0 0.00 0.00 0.00 94 1023.2
20260830224003 60 36 0.0 2.0 0.00 0.00 0.00 94 1023.3
20260830223903 60 30 0.0 2.0 0.00 0.00 0.00 94 1023.3
20260830223803 60 27 0.0 2.0 0.00 0.00 0.00 94 1023.3
20260830223703 60 7 0.0 1.0 0.00 0.00 0.00 93 1023.3
20260830223603 60 7 0.0 1.0 0.00 0.00 0.00 93 1023.1
20260830223503 60 8 0.0 1.0 0.00 0.00 0.00 93 1023.1
20260830223403 60 8 0.0 1.0 0.00 0.00 0.00 93 1023.2
20260830223303 60 8 0.0 1.0 0.00 0.00 0.00 93 1023.2
20260830223203 60 14 1.0 1.0 0.00 0.00 0.00 93 1023.1
20260830223103 60 14 1.0 1.0 0.00 0.00 0.00 93 1023.1
20260830223003 60 14 1.0 1.0 0.00 0.00 0.00 93 1023.1
20260830222903 60 15 1.0 1.0 0.00 0.00 0.00 93 1023.1
20260830222803 60 16 1.0 1.0 0.00 0.00 0.00 93 1023.3
20260830222703 60 15 1.0 1.0 0.00 0.00 0.00 92 1023.3
20260830222603 60 15 1.0 1.0 0.00 0.00 0.00 92 1023.3
20260830222503 60 13 1.0 1.0 0.00 0.00 0.00 92 1023.5
20260830222403 60 14 0.0 1.0 0.00 0.00 0.00 92 1023.5
20260830222306 60 15 0.0 1.0 0.00 0.00 0.00 92 1023.5
20260830222224 60 13 0.0 1.0 0.00 0.00 0.00 92 1023.2
20260830222103 60 5 0.0 1.0 0.00 0.00 0.00 92 1023.3
20260830222003 60 2 0.0 1.0 0.00 0.00 0.00 92 1023.3
20260830221903 60 2 0.0 1.0 0.00 0.00 0.00 92 1023.3
20260830221803 60 2 0.0 1.0 0.00 0.00 0.00 91 1023.2
20260830221724 60 2 0.0 1.0 0.00 0.00 0.00 91 1023.2
20260830221603 60 2 0.0 1.0 0.00 0.00 0.00 91 1023.1
20260830221503 60 0 0.0 0.0 0.00 0.00 0.00 91 1023.1
20260830221403 60 0 0.0 0.0 0.00 0.00 0.00 90 1023.1
20260830221303 60 0 0.0 0.0 0.00 0.00 0.00 90 1023.0
20260830221203 60 0 0.0 0.0 0.00 0.00 0.00 90 1023.3
20260830221124 60 0 0.0 0.0 0.00 0.00 0.00 90 1023.1
20260830221003 60 0 0.0 0.0 0.00 0.00 0.00 90 1023.2
20260830220903 60 0 0.0 0.0 0.00 0.00 0.00 90 1023.2
20260830220803 61 0 0.0 0.0 0.00 0.00 0.00 90 1023.2
20260830220703 61 0 0.0 0.0 0.00 0.00 0.00 90 1023.2
20260830220603 61 0 0.0 0.0 0.00 0.00 0.00 90 1023.1
20260830220503 61 0 0.0 0.0 0.00 0.00 0.00 90 1023.1
20260830220403 61 0 0.0 0.0 0.00 0.00 0.00 90 1023.1
20260830220303 61 0 0.0 0.0 0.00 0.00 0.00 89 1023.0
20260830220203 61 0 0.0 0.0 0.00 0.00 0.00 89 1023.2
20260830220003 61 0 0.0 0.0 0.00 0.00 0.00 89 1023.1
20260830215903 61 0 0.0 0.0 0.00 0.00 0.00 89 1023.1
20260830215803 61 0 0.0 0.0 0.00 0.00 0.00 89 1023.1
20260830215703 61 0 0.0 0.0 0.00 0.00 0.00 89 1023.0
20260830215603 61 0 0.0 0.0 0.00 0.00 0.00 89 1023.1
20260830215503 61 2 0.0 1.0 0.00 0.00 0.00 89 1023.1
20260830215403 61 2 0.0 1.0 0.00 0.00 0.00 89 1023.2
20260830215305 61 2 0.0 1.0 0.00 0.00 0.00 89 1023.1
20260830215224 61 2 0.0 1.0 0.00 0.00 0.00 88 1023.1
20260830215103 61 2 0.0 1.0 0.00 0.00 0.00 88 1023.1
20260830215003 61 2 0.0 1.0 0.00 0.00 0.00 88 1023.1
20260830214903 62 2 0.0 1.0 0.00 0.00 0.00 88 1023.1
20260830214803 62 2 0.0 1.0 0.00 0.00 0.00 88 1023.1
20260830214703 62 2 0.0 1.0 0.00 0.00 0.00 88 1023.1
20260830214603 62 2 0.0 1.0 0.00 0.00 0.00 88 1023.1
20260830214503 62 2 0.0 1.0 0.00 0.00 0.00 88 1023.1
20260830214403 62 0 0.0 0.0 0.00 0.00 0.00 88 1023.1
20260830214303 62 0 0.0 0.0 0.00 0.00 0.00 88 1023.1
20260830214203 62 0 0.0 0.0 0.00 0.00 0.00 88 1023.1
20260830214124 62 0 0.0 0.0 0.00 0.00 0.00 88 1023.0
20260830214003 62 0 0.0 0.0 0.00 0.00 0.00 88 1023.0
20260830213903 61 0 0.0 0.0 0.00 0.00 0.00 88 1023.0
20260830213803 61 0 0.0 0.0 0.00 0.00 0.00 88 1023.1
20260830213724 62 0 0.0 0.0 0.00 0.00 0.00 88 1023.0
20260830213603 62 0 0.0 0.0 0.00 0.00 0.00 87 1023.0
20260830213524 62 0 0.0 0.0 0.00 0.00 0.00 87 1023.0
20260830213424 62 0 0.0 0.0 0.00 0.00 0.00 87 1023.1
20260830213303 62 0 0.0 0.0 0.00 0.00 0.00 87 1023.0
20260830213203 62 0 0.0 0.0 0.00 0.00 0.00 87 1023.0
20260830213103 62 0 0.0 0.0 0.00 0.00 0.00 86 1023.0
20260830213003 62 0 0.0 0.0 0.00 0.00 0.00 86 1023.0
20260830212903 62 0 0.0 0.0 0.00 0.00 0.00 86 1022.9
20260830212803 62 2 0.0 1.0 0.00 0.00 0.00 86 1023.0
20260830212703 62 2 0.0 1.0 0.00 0.00 0.00 86 1022.9
20260830212603 63 2 0.0 1.0 0.00 0.00 0.00 86 1023.1
20260830212503 63 2 0.0 1.0 0.00 0.01 0.00 86 1022.9
20260830212403 63 2 0.0 1.0 0.00 0.01 0.00 85 1023.1
20260830212305 63 2 1.0 1.0 0.00 0.01 0.00 85 1022.8
20260830212203 63 2 1.0 1.0 0.00 0.01 0.00 85 1022.9
20260830212103 63 2 1.0 1.0 0.00 0.01 0.00 85 1022.9
20260830212024 63 2 1.0 1.0 0.00 0.01 0.00 85 1023.1
20260830211903 63 2 1.0 1.0 0.00 0.01 0.00 85 1023.0
20260830211824 63 2 1.0 1.0 0.00 0.01 0.00 85 1023.1
20260830211703 63 2 1.0 1.0 0.00 0.01 0.00 85 1022.9
20260830211603 63 2 1.0 1.0 0.00 0.01 0.00 84 1022.9
20260830211503 63 2 1.0 1.0 0.00 0.01 0.00 84 1023.0
20260830211403 63 2 1.0 1.0 0.00 0.01 0.00 84 1022.9
20260830211303 64 2 1.0 1.0 0.00 0.01 0.00 84 1023.0
20260830211203 64 2 1.0 1.0 0.00 0.01 0.00 84 1023.0
20260830211103 64 2 1.0 1.0 0.00 0.01 0.00 83 1022.8
20260830211003 64 2 0.0 1.0 0.00 0.01 0.00 83 1023.0
20260830210903 64 2 0.0 1.0 0.00 0.01 0.00 83 1022.9
20260830210803 64 2 0.0 1.0 0.00 0.01 0.00 83 1023.0
20260830210724 64 2 0.0 1.0 0.00 0.01 0.00 83 1023.0
20260830210603 64 2 0.0 1.0 0.00 0.01 0.00 83 1022.8
20260830210503 64 2 0.0 1.0 0.00 0.01 0.00 83 1022.8
20260830210403 64 0 0.0 0.0 0.00 0.01 0.00 83 1022.8
20260830210303 64 0 0.0 0.0 0.00 0.01 0.00 83 1023.0
20260830210224 64 2 0.0 1.0 0.00 0.01 0.00 83 1022.9
20260830210124 64 2 0.0 1.0 0.00 0.01 0.00 83 1022.7
20260830210024 64 2 0.0 1.0 0.00 0.01 0.00 83 1022.8
20260830205903 64 2 0.0 1.0 0.00 0.01 0.00 83 1022.8
20260830205824 64 2 0.0 1.0 0.00 0.01 0.00 83 1022.6
20260830205703 64 2 0.0 1.0 0.00 0.01 0.00 83 1023.0
20260830205603 64 2 0.0 1.0 0.00 0.01 0.00 83 1022.8
20260830205503 64 2 0.0 1.0 0.00 0.01 0.00 83 1022.8
20260830205403 64 2 0.0 1.0 0.00 0.01 0.00 83 1022.9
20260830205324 64 2 0.0 1.0 0.00 0.01 0.00 83 1022.9
20260830205203 64 2 0.0 1.0 0.00 0.01 0.00 82 1022.7
20260830205103 64 2 0.0 1.0 0.00 0.01 0.00 82 1022.7
20260830205003 64 0 0.0 0.0 0.00 0.01 0.00 82 1022.8
20260830204903 64 0 0.0 0.0 0.00 0.01 0.00 82 1022.7
20260830204803 64 0 0.0 0.0 0.00 0.01 0.00 82 1022.7
20260830204703 64 0 0.0 0.0 0.00 0.01 0.00 82 1022.7
20260830204603 64 0 0.0 0.0 0.00 0.01 0.00 82 1022.7
20260830204503 64 0 0.0 0.0 0.00 0.01 0.00 82 1022.7
20260830204403 64 0 0.0 0.0 0.00 0.01 0.00 82 1022.5
20260830204324 64 0 0.0 0.0 0.00 0.01 0.00 82 1022.7
20260830204203 64 1 0.0 1.0 0.00 0.01 0.00 82 1022.6
20260830204103 65 359 0.0 1.0 0.00 0.01 0.00 81 1022.7
20260830204003 65 358 0.0 1.0 0.00 0.01 0.00 81 1022.6
20260830203903 65 359 0.0 1.0 0.00 0.01 0.00 81 1022.6
20260830203803 65 359 0.0 1.0 0.00 0.01 0.00 81 1022.5
20260830203703 65 359 0.0 1.0 0.00 0.01 0.00 81 1022.5
20260830203603 65 360 0.0 1.0 0.00 0.01 0.00 81 1022.6
20260830203503 65 360 0.0 1.0 0.00 0.01 0.00 81 1022.5
20260830203403 65 1 0.0 1.0 0.00 0.01 0.00 80 1022.5
20260830203324 65 1 0.0 1.0 0.00 0.01 0.00 80 1022.6
20260830203203 65 357 1.0 2.0 0.00 0.01 0.00 80 1022.5
20260830203103 65 354 1.0 2.0 0.00 0.01 0.00 81 1022.5
20260830203003 65 354 1.0 2.0 0.00 0.01 0.00 81 1022.6
20260830202903 65 353 0.0 2.0 0.00 0.01 0.00 81 1022.5
20260830202803 65 353 0.0 2.0 0.00 0.01 0.00 81 1022.5
20260830202703 65 353 0.0 2.0 0.00 0.01 0.00 81 1022.5
20260830202603 64 352 0.0 2.0 0.00 0.01 0.00 81 1022.4
20260830202503 64 352 0.0 2.0 0.00 0.01 0.00 81 1022.4
20260830202403 64 350 0.0 2.0 0.00 0.01 0.00 81 1022.5
20260830202324 64 350 0.0 2.0 0.00 0.01 0.00 82 1022.5
20260830202203 64 350 0.0 2.0 0.00 0.01 0.00 82 1022.5
20260830202103 64 356 0.0 1.0 0.00 0.01 0.00 82 1022.6
20260830202003 64 1 0.0 1.0 0.00 0.01 0.00 82 1022.3
20260830201903 64 2 0.0 1.0 0.00 0.01 0.00 82 1022.6
20260830201803 64 2 0.0 1.0 0.00 0.01 0.00 82 1022.4
20260830201703 64 2 0.0 1.0 0.00 0.01 0.00 82 1022.3
20260830201603 64 3 0.0 1.0 0.00 0.01 0.00 83 1022.3
20260830201503 64 3 0.0 1.0 0.00 0.01 0.00 83 1022.3
20260830201403 64 3 0.0 1.0 0.00 0.01 0.00 83 1022.1
20260830201303 64 3 0.0 1.0 0.00 0.01 0.00 83 1022.3
20260830201224 64 3 0.0 1.0 0.00 0.01 0.00 83 1022.3
20260830201103 64 2 0.0 1.0 0.00 0.01 0.00 84 1022.3
20260830201003 64 2 0.0 1.0 0.00 0.01 0.00 84 1022.3
20260830200903 64 2 0.0 1.0 0.00 0.01 0.00 84 1022.2
20260830200803 64 357 0.0 1.0 0.00 0.01 0.00 84 1022.1
20260830200703 64 357 0.0 1.0 0.00 0.01 0.00 84 1022.3
20260830200606 65 360 0.0 1.0 0.00 0.01 0.00 83 1022.0
20260830200303 65 360 0.0 1.0 0.00 0.01 0.00 83 1022.0
20260830200203 65 360 0.0 1.0 0.00 0.01 0.00 83 1022.1
20260830200103 65 360 0.0 1.0 0.00 0.01 0.00 83 1022.0
20260830200003 65 360 0.0 1.0 0.00 0.01 0.00 83 1022.1
20260830195903 65 359 0.0 1.0 0.00 0.01 0.00 83 1022.0
20260830195824 65 359 0.0 1.0 0.00 0.01 0.00 83 1022.0
20260830195703 65 360 0.0 1.0 0.00 0.01 0.00 83 1021.9
20260830195624 65 354 0.0 2.0 0.00 0.01 0.00 83 1022.1
20260830195503 65 354 0.0 2.0 0.00 0.01 0.00 83 1022.0
20260830195403 65 355 0.0 2.0 0.00 0.01 0.00 83 1022.1
20260830195305 65 351 1.0 2.0 0.00 0.01 0.00 83 1021.9
20260830195224 65 350 1.0 2.0 0.00 0.01 0.00 83 1022.1
20260830195124 65 350 1.0 2.0 0.00 0.01 0.00 83 1022.0
20260830195003 66 352 1.0 2.0 0.00 0.01 0.00 83 1021.9
20260830194903 66 349 1.0 2.0 0.00 0.01 0.00 82 1021.8
20260830194803 66 349 1.0 2.0 0.00 0.01 0.00 82 1022.0
20260830194703 66 348 1.0 2.0 0.00 0.01 0.00 82 1021.9
20260830194603 66 352 1.0 2.0 0.00 0.01 0.00 82 1021.9
20260830194503 66 352 1.0 2.0 0.00 0.01 0.00 82 1022.0
20260830194403 66 351 1.0 2.0 0.00 0.01 0.00 82 1021.9
20260830194303 66 352 1.0 2.0 0.00 0.01 0.00 82 1021.9
20260830194203 66 357 1.0 2.0 0.00 0.01 0.00 81 1021.8
20260830194103 66 352 1.0 2.0 0.00 0.01 0.00 81 1021.9
20260830194003 66 351 1.0 2.0 0.00 0.01 0.00 81 1021.8
20260830193903 66 351 1.0 2.0 0.00 0.01 0.00 82 1021.6
20260830193803 66 356 1.0 2.0 0.00 0.01 0.00 82 1021.7
20260830193703 66 356 1.0 2.0 0.00 0.01 0.00 82 1021.7
20260830193603 66 356 1.0 2.0 0.00 0.01 0.00 82 1021.9
20260830193503 66 355 1.0 2.0 0.00 0.01 0.00 82 1021.7
20260830193403 66 354 1.0 2.0 0.00 0.01 0.00 82 1021.6
20260830193303 66 355 1.0 2.0 0.00 0.01 0.00 82 1021.6
20260830193203 66 354 1.0 2.0 0.00 0.01 0.00 81 1021.7
20260830193124 66 352 1.0 2.0 0.00 0.01 0.00 82 1021.8
20260830193003 66 348 1.0 2.0 0.00 0.01 0.00 81 1021.7
20260830192904 66 345 1.0 2.0 0.00 0.01 0.00 81 1021.8
20260830192803 66 344 1.0 2.0 0.00 0.01 0.00 81 1021.5
20260830192703 66 344 1.0 2.0 0.00 0.01 0.00 81 1021.6
20260830192603 66 344 1.0 2.0 0.00 0.01 0.00 81 1021.6
20260830192524 67 345 1.0 2.0 0.00 0.01 0.00 81 1021.7
20260830192403 67 344 1.0 2.0 0.00 0.01 0.00 81 1021.7
20260830192305 67 346 1.0 2.0 0.00 0.01 0.00 81 1021.5
20260830192203 67 347 1.0 2.0 0.00 0.01 0.00 81 1021.7
20260830192103 67 348 1.0 2.0 0.00 0.01 0.00 81 1021.6
20260830192024 67 349 1.0 2.0 0.00 0.01 0.00 81 1021.6
20260830191903 67 354 1.0 2.0 0.00 0.01 0.00 81 1021.8
20260830191824 67 352 1.0 2.0 0.00 0.01 0.00 81 1021.6
20260830191724 67 353 1.0 2.0 0.00 0.01 0.00 81 1021.5
20260830191603 67 352 1.0 2.0 0.00 0.01 0.00 81 1021.4
20260830191503 67 353 1.0 2.0 0.00 0.01 0.00 81 1021.5
20260830191403 67 348 1.0 2.0 0.00 0.01 0.00 81 1021.4
20260830191303 67 348 1.0 2.0 0.00 0.01 0.00 81 1021.4
20260830191203 67 347 1.0 2.0 0.00 0.01 0.00 81 1021.6
20260830191103 67 347 1.0 2.0 0.00 0.01 0.00 81 1021.5
20260830191003 67 347 1.0 2.0 0.00 0.01 0.00 80 1021.4
20260830190924 67 345 2.0 2.0 0.00 0.01 0.00 80 1021.5
20260830190803 67 345 2.0 2.0 0.00 0.01 0.00 80 1021.5
20260830190724 67 347 2.0 2.0 0.00 0.01 0.00 80 1021.5
20260830190604 67 342 2.0 3.0 0.00 0.01 0.00 80 1021.5
20260830190524 67 341 2.0 3.0 0.00 0.01 0.00 80 1021.4
20260830190424 67 341 2.0 3.0 0.00 0.01 0.00 80 1021.4
20260830190303 67 337 2.0 3.0 0.00 0.01 0.00 80 1021.6
20260830190204 67 334 2.0 3.0 0.00 0.01 0.00 80 1021.5
20260830190103 67 332 2.0 3.0 0.00 0.01 0.00 79 1021.4
20260830190003 67 334 2.0 3.0 0.00 0.01 0.00 79 1021.3
20260830185903 67 330 2.0 3.0 0.00 0.01 0.00 79 1021.4
20260830185803 67 321 2.0 3.0 0.00 0.01 0.00 79 1021.5
20260830185703 68 318 2.0 4.0 0.00 0.01 0.00 79 1021.5
20260830185624 68 318 2.0 4.0 0.00 0.01 0.00 79 1021.4
20260830185503 68 310 3.0 6.0 0.00 0.01 0.00 79 1021.4
20260830185403 68 309 3.0 6.0 0.00 0.01 0.00 79 1021.4
20260830185306 68 304 3.0 7.0 0.00 0.01 0.00 78 1021.3
20260830185203 68 300 3.0 7.0 0.00 0.01 0.00 78 1021.4
20260830185104 68 296 3.0 7.0 0.00 0.01 0.00 78 1021.3
20260830185003 68 291 3.0 7.0 0.00 0.01 0.00 78 1021.3
20260830184903 68 290 3.0 7.0 0.00 0.01 0.00 78 1021.4
20260830184803 68 289 3.0 7.0 0.00 0.01 0.00 77 1021.3
20260830184703 68 293 3.0 7.0 0.00 0.01 0.00 77 1021.5
20260830184624 69 298 3.0 7.0 0.00 0.01 0.00 77 1021.3
20260830184504 69 296 3.0 7.0 0.00 0.01 0.00 77 1021.3
20260830184403 69 292 3.0 7.0 0.00 0.01 0.00 77 1021.4
20260830184303 69 295 3.0 7.0 0.00 0.01 0.00 77 1021.3
20260830184203 69 295 3.0 6.0 0.00 0.01 0.00 77 1021.4
20260830184103 69 304 3.0 6.0 0.00 0.01 0.00 77 1021.3
20260830184003 69 305 3.0 6.0 0.00 0.01 0.00 77 1021.3
20260830183903 69 311 3.0 6.0 0.00 0.01 0.00 76 1021.2
20260830183803 69 312 3.0 6.0 0.00 0.01 0.00 76 1021.4
20260830183703 69 307 3.0 7.0 0.00 0.01 0.00 76 1021.2
20260830183603 69 304 3.0 7.0 0.00 0.01 0.00 76 1021.4
20260830183503 69 296 3.0 7.0 0.00 0.01 0.00 76 1021.3
20260830183403 69 310 3.0 7.0 0.00 0.01 0.00 76 1021.3
20260830183303 70 303 3.0 7.0 0.00 0.01 0.00 76 1021.3
20260830183224 70 303 3.0 7.0 0.00 0.01 0.00 76 1021.2
20260830183103 70 311 3.0 7.0 0.00 0.01 0.00 75 1021.2
20260830183003 70 307 3.0 7.0 0.00 0.01 0.00 75 1021.2
20260830182924 70 304 3.0 7.0 0.00 0.01 0.00 75 1021.3
20260830182803 70 305 3.0 7.0 0.00 0.01 0.00 75 1021.0
20260830182703 70 299 3.0 7.0 0.00 0.01 0.00 75 1021.1
20260830182603 70 307 3.0 7.0 0.00 0.01 0.00 75 1021.1
20260830182503 70 310 3.0 7.0 0.00 0.01 0.00 75 1021.2
20260830182403 70 306 3.0 7.0 0.00 0.01 0.00 75 1021.1
20260830182306 70 306 3.0 6.0 0.00 0.01 0.00 74 1021.2
20260830182203 70 300 3.0 8.0 0.00 0.01 0.00 74 1021.3
20260830182103 70 300 3.0 8.0 0.00 0.01 0.00 75 1021.2
20260830182003 70 304 3.0 8.0 0.00 0.01 0.00 75 1021.1
20260830181903 70 298 4.0 10.0 0.00 0.01 0.00 74 1021.0
20260830181803 70 303 4.0 10.0 0.00 0.01 0.00 74 1021.2
20260830181703 71 305 4.0 10.0 0.00 0.01 0.00 74 1021.0
20260830181603 71 307 4.0 10.0 0.00 0.01 0.00 74 1021.2
20260830181503 70 303 4.0 10.0 0.00 0.01 0.00 74 1021.1
20260830181403 70 305 4.0 10.0 0.00 0.01 0.00 74 1021.1
20260830181324 70 304 4.0 10.0 0.00 0.01 0.00 74 1021.1
20260830181203 70 308 4.0 10.0 0.00 0.01 0.00 74 1021.1
20260830181124 71 312 4.0 10.0 0.00 0.01 0.00 74 1021.2
20260830181025 71 310 4.0 10.0 0.00 0.01 0.00 73 1021.1
20260830180903 71 315 3.0 8.0 0.00 0.01 0.00 74 1021.2
20260830180803 71 309 3.0 8.0 0.00 0.01 0.00 74 1021.1
20260830180724 70 305 3.0 8.0 0.00 0.01 0.00 74 1020.9
20260830180603 70 300 3.0 8.0 0.00 0.01 0.00 74 1021.0
20260830180503 70 302 3.0 8.0 0.00 0.01 0.00 74 1021.0
20260830180403 71 300 3.0 8.0 0.00 0.01 0.00 74 1021.1
20260830180303 71 295 3.0 8.0 0.00 0.01 0.00 73 1021.1
20260830180224 71 288 3.0 8.0 0.00 0.01 0.00 73 1021.1
20260830180103 71 290 3.0 8.0 0.00 0.01 0.00 73 1020.9
20260830180003 71 290 3.0 8.0 0.00 0.01 0.00 73 1020.9
20260830175903 71 290 3.0 8.0 0.00 0.01 0.00 73 1021.1
20260830175803 71 295 3.0 8.0 0.00 0.01 0.00 72 1021.0
20260830175703 71 299 3.0 8.0 0.00 0.01 0.00 72 1020.9
20260830175603 71 308 3.0 7.0 0.00 0.01 0.00 73 1020.9
20260830175524 71 299 3.0 7.0 0.00 0.01 0.00 73 1021.0
20260830175403 71 283 4.0 7.0 0.00 0.01 0.00 72 1021.0
20260830175305 71 287 4.0 7.0 0.00 0.01 0.00 72 1021.1
20260830175203 71 291 4.0 7.0 0.00 0.01 0.00 72 1020.9
20260830175103 71 294 4.0 7.0 0.00 0.01 0.00 72 1020.8
20260830175003 71 302 4.0 7.0 0.00 0.01 0.00 72 1021.0
20260830174903 71 307 4.0 7.0 0.00 0.01 0.00 72 1020.8
20260830174803 71 308 4.0 7.0 0.00 0.01 0.00 72 1020.9
20260830174703 71 307 4.0 7.0 0.00 0.01 0.00 72 1020.8
20260830174603 71 304 4.0 7.0 0.00 0.01 0.00 72 1020.9
20260830174503 72 313 4.0 7.0 0.00 0.01 0.00 72 1021.0
20260830174403 72 322 4.0 7.0 0.00 0.01 0.00 71 1020.8
20260830174303 72 338 4.0 8.0 0.00 0.01 0.00 72 1020.8
20260830174203 72 335 4.0 8.0 0.00 0.01 0.00 72 1021.0
20260830174103 72 327 4.0 8.0 0.00 0.01 0.00 71 1021.0
20260830174003 72 325 4.0 8.0 0.00 0.01 0.00 71 1020.7
20260830173903 72 325 4.0 8.0 0.00 0.01 0.00 71 1021.0
20260830173803 72 312 4.0 8.0 0.00 0.01 0.00 70 1020.8
20260830173703 72 313 4.0 8.0 0.00 0.01 0.00 70 1020.8
20260830173603 72 314 4.0 8.0 0.00 0.01 0.00 71 1020.9
20260830173503 72 309 5.0 8.0 0.00 0.01 0.00 71 1020.8
20260830173403 72 303 5.0 8.0 0.00 0.01 0.00 70 1020.9
20260830173303 72 296 4.0 8.0 0.00 0.01 0.00 70 1020.8
20260830173224 72 294 4.0 8.0 0.00 0.01 0.00 70 1020.7
20260830173124 72 290 4.0 8.0 0.00 0.01 0.00 70 1020.7
20260830173003 72 291 4.0 8.0 0.00 0.01 0.00 70 1020.8
20260830172903 72 290 4.0 8.0 0.00 0.01 0.00 70 1020.9
20260830172803 72 294 4.0 8.0 0.00 0.01 0.00 70 1020.6
20260830172703 72 296 4.0 8.0 0.00 0.01 0.00 70 1020.7
20260830172603 72 304 4.0 8.0 0.00 0.01 0.00 70 1020.7
20260830172503 72 306 4.0 7.0 0.00 0.01 0.00 70 1020.7
20260830172403 72 311 4.0 7.0 0.00 0.01 0.00 70 1020.7
20260830172306 72 318 4.0 7.0 0.00 0.01 0.00 70 1020.8
20260830172203 73 321 4.0 7.0 0.00 0.01 0.00 70 1020.6
20260830172103 73 325 4.0 7.0 0.00 0.01 0.00 70 1020.7
20260830172003 73 322 4.0 7.0 0.00 0.01 0.00 70 1020.6
20260830171924 73 325 4.0 7.0 0.00 0.01 0.00 70 1020.5
20260830171803 73 316 4.0 7.0 0.00 0.01 0.00 70 1020.7
20260830171703 73 311 4.0 7.0 0.00 0.01 0.00 70 1020.8
20260830171603 73 307 4.0 7.0 0.00 0.01 0.00 70 1020.7
20260830171524 73 301 4.0 7.0 0.00 0.01 0.00 70 1020.7
20260830171404 73 305 4.0 7.0 0.00 0.01 0.00 69 1020.5
20260830171324 73 295 3.0 7.0 0.00 0.01 0.00 69 1020.6
20260830171203 73 294 3.0 7.0 0.00 0.01 0.00 69 1020.7
20260830171103 73 295 3.0 7.0 0.00 0.01 0.00 69 1020.7
20260830171003 73 301 3.0 7.0 0.00 0.01 0.00 69 1020.5
20260830170903 74 311 3.0 8.0 0.00 0.01 0.00 69 1020.4
20260830170803 74 321 3.0 8.0 0.00 0.01 0.00 69 1020.6
20260830170703 74 318 3.0 8.0 0.00 0.01 0.00 68 1020.6
20260830170603 74 321 4.0 10.0 0.00 0.01 0.00 68 1020.5
20260830170524 74 321 4.0 10.0 0.00 0.01 0.00 68 1020.5
20260830170424 74 319 4.0 10.0 0.00 0.01 0.00 69 1020.5
20260830170303 74 322 4.0 10.0 0.00 0.01 0.00 68 1020.6
20260830170203 73 328 3.0 10.0 0.00 0.01 0.00 69 1020.6
20260830170124 73 326 3.0 10.0 0.00 0.01 0.00 69 1020.5
20260830170003 73 323 4.0 10.0 0.00 0.01 0.00 69 1020.6
20260830165903 73 318 4.0 10.0 0.00 0.01 0.00 69 1020.6
20260830165803 74 311 4.0 10.0 0.00 0.01 0.00 68 1020.7
20260830165703 74 313 4.0 10.0 0.00 0.01 0.00 67 1020.4
20260830165624 74 310 4.0 10.0 0.00 0.01 0.00 67 1020.6
20260830165503 74 316 3.0 8.0 0.00 0.01 0.00 67 1020.5
20260830165403 74 308 3.0 7.0 0.00 0.01 0.00 68 1020.7
20260830165324 74 307 3.0 7.0 0.00 0.01 0.00 68 1020.4
20260830165203 74 310 3.0 7.0 0.00 0.01 0.00 69 1020.5
20260830165124 74 305 4.0 7.0 0.00 0.01 0.00 68 1020.7
20260830165003 74 306 4.0 7.0 0.00 0.01 0.00 68 1020.5
20260830164924 74 302 4.0 6.0 0.00 0.01 0.00 67 1020.4
20260830164803 74 303 3.0 6.0 0.00 0.01 0.00 68 1020.3
20260830164703 74 305 4.0 7.0 0.00 0.01 0.00 68 1020.4
20260830164604 74 313 3.0 7.0 0.00 0.01 0.00 68 1020.5
20260830164503 74 305 4.0 7.0 0.00 0.01 0.00 68 1020.5
20260830164403 74 306 4.0 7.0 0.00 0.01 0.00 68 1020.6
20260830164324 74 314 4.0 7.0 0.00 0.01 0.00 68 1020.4
20260830164203 74 312 4.0 7.0 0.00 0.01 0.00 67 1020.3
20260830164103 74 320 3.0 7.0 0.00 0.01 0.00 68 1020.4
20260830164003 74 323 3.0 7.0 0.00 0.01 0.00 67 1020.4
20260830163903 74 329 3.0 7.0 0.00 0.01 0.00 67 1020.3
20260830163824 74 336 3.0 7.0 0.00 0.01 0.00 68 1020.3
20260830163703 74 345 3.0 6.0 0.00 0.01 0.00 68 1020.4
20260830163603 75 343 3.0 6.0 0.00 0.01 0.00 66 1020.4
20260830163503 75 341 3.0 6.0 0.00 0.01 0.00 66 1020.2
20260830163424 75 334 3.0 7.0 0.00 0.01 0.00 67 1020.4
20260830163303 74 327 4.0 7.0 0.00 0.01 0.00 66 1020.5
20260830163203 74 325 4.0 7.0 0.00 0.01 0.00 67 1020.3
20260830163103 74 314 4.0 7.0 0.00 0.01 0.00 67 1020.3
20260830163003 74 301 4.0 7.0 0.00 0.01 0.00 67 1020.3
20260830162903 74 290 5.0 7.0 0.00 0.01 0.00 67 1020.5
20260830162503 74 285 5.0 7.0 0.00 0.01 0.00 68 1020.3
20260830162403 74 281 5.0 7.0 0.00 0.01 0.00 67 1020.4
20260830162306 74 285 5.0 8.0 0.00 0.01 0.00 67 1020.4
20260830162203 74 286 5.0 8.0 0.00 0.01 0.00 67 1020.4
20260830162103 74 285 4.0 8.0 0.00 0.01 0.00 67 1020.5
20260830162003 74 286 4.0 8.0 0.00 0.01 0.00 67 1020.4
20260830161924 74 294 4.0 8.0 0.00 0.01 0.00 67 1020.4
20260830161803 74 292 4.0 8.0 0.00 0.01 0.00 67 1020.2
20260830161703 74 297 4.0 8.0 0.00 0.01 0.00 67 1020.3
20260830161603 74 298 4.0 8.0 0.00 0.01 0.00 66 1020.2
20260830161503 74 295 4.0 8.0 0.00 0.01 0.00 67 1020.3
20260830161424 75 295 4.0 8.0 0.00 0.01 0.00 67 1020.4
20260830161303 75 299 3.0 7.0 0.00 0.01 0.00 67 1020.3
20260830161203 75 296 3.0 7.0 0.00 0.01 0.00 66 1020.3
20260830161103 75 298 4.0 7.0 0.00 0.01 0.00 66 1020.3
20260830161004 75 298 4.0 7.0 0.00 0.01 0.00 66 1020.3
20260830160903 75 301 4.0 7.0 0.00 0.01 0.00 67 1020.2
20260830160803 75 312 3.0 7.0 0.00 0.01 0.00 66 1020.3
20260830160703 74 312 3.0 7.0 0.00 0.01 0.00 68 1020.3
20260830160603 74 315 4.0 7.0 0.00 0.01 0.00 67 1020.2
20260830160503 74 322 3.0 7.0 0.00 0.01 0.00 67 1020.3
20260830160403 74 321 3.0 7.0 0.00 0.01 0.00 67 1020.2
20260830160303 75 335 3.0 7.0 0.00 0.01 0.00 68 1020.3
20260830160203 75 339 3.0 7.0 0.00 0.01 0.00 67 1020.2
20260830160103 75 335 3.0 8.0 0.00 0.01 0.00 66 1020.3
20260830160003 75 312 4.0 10.0 0.00 0.01 0.00 66 1020.3
20260830155903 75 308 4.0 10.0 0.00 0.01 0.00 66 1020.3
20260830155824 75 301 3.0 10.0 0.00 0.01 0.00 66 1020.4
20260830155703 75 301 4.0 10.0 0.00 0.01 0.00 66 1020.3
20260830155603 75 295 4.0 10.0 0.00 0.01 0.00 66 1020.3
20260830155503 75 297 4.0 10.0 0.00 0.01 0.00 67 1020.3
20260830155403 74 288 4.0 10.0 0.00 0.01 0.00 68 1020.1
20260830155306 74 284 4.0 10.0 0.00 0.01 0.00 67 1020.3
20260830155203 74 288 4.0 10.0 0.00 0.01 0.00 67 1020.2
20260830155124 75 288 4.0 10.0 0.00 0.01 0.00 66 1020.1
20260830155003 75 296 4.0 10.0 0.00 0.01 0.00 66 1020.3
20260830154924 75 315 3.0 10.0 0.00 0.01 0.00 66 1020.4